GFSWCAN_prec_cloud_126.txt.gz
Cloud_Cover
100 100 100 100 100 100 100 100 100 100 100 100 100 100 100 100 100 100 100 100 100 100 100 100 100 100 100 100 100 100 100 63 25 5 8 6 9 29 88 46 19 30 73 91 10 58 87 33 95 100 100 100 100 100
100 100 100 100 100 100 100 100 100 100 100 100 100 100 100 100 100 100 100 100 100 100 100 100 100 100 100 100 100 100 95 35 93 5 25 5 25 79 69 5 37 8 5 9 24 23 76 99 100 100 100 100 100 100
5 98 100 100 100 100 100 100 100 100 100 100 100 100 100 100 100 100 100 100 100 100 100 100 100 100 100 100 100 67 22 67 9 11 5 29 100 26 5 5 5 5 5 5 58 44 99 100 100 100 100 100 100 100
5 5 39 100 100 100 100 100 100 100 100 100 100 100 100 100 100 100 100 100 100 100 100 100 100 100 95 75 78 35 22 56 45 28 67 100 18 5 18 29 5 4 3 5 23 42 94 100 98 100 100 100 100 100
5 4 2 100 97 100 100 100 100 100 100 100 100 100 100 100 96 100 100 100 100 100 100 100 100 96 91 79 100 100 100 93 73 100 100 18 5 5 4 4 5 3 5 13 72 48 73 94 71 100 100 100 100 100
5 5 3 58 98 50 99 100 100 100 100 100 100 100 100 100 100 100 100 100 99 100 99 100 100 79 94 100 100 100 99 100 100 100 6 5 0 3 5 5 2 67 98 98 43 80 100 90 100 100 100 100 100 100
5 0 4 4 46 48 36 100 100 100 100 100 100 100 100 100 100 100 100 100 100 100 100 100 100 100 100 100 100 100 100 96 25 5 5 5 2 96 37 18 5 77 100 100 36 90 100 28 100 100 100 100 100 100
8 2 5 3 100 100 18 100 98 100 100 100 100 100 100 100 100 100 100 100 100 100 100 100 100 100 100 100 100 98 95 93 98 64 57 5 5 5 52 4 3 70 74 60 10 86 100 73 96 84 99 100 90 100
100 67 1 5 7 37 9 93 100 98 100 100 100 100 100 100 100 100 100 86 88 95 100 100 100 100 99 100 97 97 100 96 35 70 58 5 37 34 5 54 100 100 84 74 91 100 100 100 100 100 100 100 91 99
100 98 4 2 0 5 33 96 100 100 100 100 100 100 100 67 38 22 74 66 94 5 65 69 5 5 99 89 78 87 24 20 88 20 45 84 87 92 100 88 98 84 82 100 100 100 100 100 100 100 89 90 93 100
100 100 8 0 1 5 81 100 100 100 100 100 100 92 22 96 91 82 89 37 34 56 7 18 5 20 69 99 72 14 65 70 84 74 98 90 99 98 97 96 100 100 100 100 100 100 100 100 100 100 99 100 100 72
100 100 84 5 0 0 69 100 100 100 100 100 100 100 100 100 80 41 78 38 72 6 5 8 5 4 52 71 89 64 58 72 69 94 100 98 100 97 99 100 100 92 95 88 80 100 100 100 100 100 100 99 64 35
100 100 32 5 5 2 49 100 100 100 100 100 100 100 96 41 89 98 98 93 65 5 4 0 4 5 50 69 100 78 63 80 49 96 94 83 100 81 96 92 97 100 100 77 100 100 100 97 100 100 100 100 99 100
100 100 25 5 44 6 37 100 100 100 100 100 100 81 21 94 34 5 5 5 5 5 18 11 61 72 100 100 79 100 26 95 85 92 100 86 100 95 100 100 100 100 95 100 100 92 100 100 100 100 100 100 100 100
100 95 5 5 58 44 100 100 100 100 78 100 16 50 89 16 50 68 71 22 80 18 93 100 80 99 100 100 100 88 99 100 91 100 95 94 96 100 100 100 100 98 100 100 100 100 100 100 100 71 86 100 100 100
51 14 6 2 2 100 100 100 100 100 92 5 11 81 38 51 100 100 97 100 100 100 100 95 99 99 100 100 100 100 96 69 100 99 99 100 100 100 100 100 100 100 99 78 97 98 85 23 5 54 7 99 100 89
6 13 5 5 8 94 100 100 84 100 100 44 88 80 78 63 99 100 100 100 100 100 68 99 95 94 64 64 94 86 100 83 96 100 83 54 100 100 100 100 99 73 42 23 36 62 55 5 33 82 100 76 98 100
97 100 100 97 100 100 100 96 89 36 55 85 44 85 97 92 97 96 96 94 75 100 89 71 92 89 80 77 100 97 99 100 95 82 95 88 72 80 76 84 93 80 77 76 56 63 52 65 75 95 92 80 79 83
100 100 100 100 95 34 52 53 29 66 71 80 100 90 70 82 79 76 97 100 99 89 80 71 42 100 92 98 98 93 98 98 100 100 100 100 100 100 100 100 99 71 70 70 67 69 6 25 35 59 79 81 86 83
100 100 100 88 24 97 77 53 91 100 100 100 91 92 100 93 82 100 100 100 100 100 100 80 99 100 100 100 100 100 100 100 100 100 100 100 100 100 84 47 62 25 67 48 37 93 82 69 70 64 71 72 70 10
100 100 60 73 100 100 100 100 100 100 100 100 100 100 100 100 100 99 99 100 100 96 95 95 92 100 99 93 82 100 100 94 59 10 17 91 95 5 25 56 39 74 78 91 99 90 70 70 77 71 68 95 54 8
100 100 100 100 100 100 100 100 100 100 100 100 100 99 89 83 96 89 73 93 93 92 73 84 97 98 88 85 83 72 57 36 46 86 84 34 86 84 88 83 94 85 76 81 66 74 65 18 80 70 65 73 80 18
100 100 100 100 100 100 100 100 100 100 100 98 85 81 90 96 94 61 78 72 80 99 84 48 67 54 47 78 84 93 94 94 95 89 84 97 100 97 85 79 96 71 67 78 46 26 25 59 14 47 63 69 87 100
100 100 100 100 100 100 100 100 100 100 100 100 98 100 100 100 82 82 75 79 91 100 71 61 57 68 93 100 85 87 93 88 89 85 92 76 87 94 100 87 68 87 86 94 66 77 79 5 56 88 62 70 97 98
77 55 97 100 100 100 100 100 100 100 100 100 100 100 94 71 59 80 63 85 100 98 86 64 70 70 69 97 94 63 63 69 74 89 90 59 82 61 70 77 88 96 70 98 95 87 87 80 41 58 38 35 51 83
54 89 88 94 91 98 99 97 100 96 100 100 100 100 85 54 90 78 78 81 96 87 80 80 81 76 75 48 57 80 92 79 86 82 84 72 70 56 51 60 90 77 69 62 90 94 82 94 96 90 65 77 78 44
91 72 90 85 99 85 84 91 96 80 93 100 98 71 77 98 93 86 83 86 76 77 70 72 75 75 71 90 77 70 66 90 90 81 66 89 87 82 87 68 74 59 66 56 92 100 100 100 100 99 100 92 100 100
61 92 97 80 64 93 91 90 77 62 83 78 72 81 87 81 86 93 96 97 81 89 96 99 98 81 83 82 59 60 95 96 95 89 92 90 96 85 69 68 79 67 84 72 57 70 59 74 95 83 97 97 100 100
32 18 9 73 33 26 39 35 70 63 55 65 55 70 84 94 100 100 100 100 100 100 100 99 100 93 89 81 60 59 49 98 100 100 96 100 98 92 54 72 33 64 63 69 54 87 70 56 85 95 89 82 74 80
65 70 9 20 37 58 51 93 85 66 65 47 87 100 100 100 100 100 100 100 100 100 94 89 81 69 78 50 100 100 96 100 100 100 100 81 62 64 73 54 21 32 38 39 46 44 28 36 76 62 81 56 86 59
88 94 97 82 38 86 82 47 38 44 50 60 91 100 100 100 64 97 100 90 100 100 100 99 100 100 74 94 100 100 100 100 100 100 100 98 56 47 62 61 64 57 25 48 12 49 47 84 46 77 62 67 80 93
87 90 80 79 74 87 99 88 77 71 98 100 100 97 100 100 100 72 93 99 100 100 100 94 100 100 97 100 100 100 100 100 100 100 100 100 99 90 77 63 50 39 56 47 23 58 44 63 71 65 64 63 60 44
86 90 96 84 61 45 47 90 93 93 99 99 96 99 100 100 100 100 95 100 97 100 100 84 100 100 100 100 100 100 100 100 100 100 100 100 100 100 89 80 87 58 78 86 45 60 49 49 55 31 41 5 37 28

GFSWCAN_prec_cloud_129.txt.gz
Cloud_Cover
100 100 100 100 100 100 100 100 100 100 100 100 100 100 100 100 100 100 100 100 100 100 100 100 100 100 100 100 100 100 100 100 100 100 100 100 100 48 16 5 5 5 21 79 35 23 4 5 54 29 95 100 100 100
100 100 100 100 100 100 100 100 100 100 100 100 100 100 100 100 100 100 100 100 100 100 100 100 100 100 100 100 100 100 100 100 100 100 100 100 100 44 7 5 5 5 5 5 5 5 5 5 74 99 100 100 100 100
100 100 100 100 100 100 100 100 100 100 100 100 100 100 100 100 100 100 100 100 100 100 100 100 100 100 100 100 100 100 100 100 100 100 99 99 7 5 39 5 5 5 5 13 5 5 11 5 87 100 100 100 100 100
100 100 100 100 100 100 100 100 100 100 100 100 100 100 100 100 100 100 100 100 100 100 100 100 100 100 100 100 100 100 100 100 100 86 78 20 5 7 6 9 19 3 5 6 5 5 8 18 100 98 100 100 100 100
31 95 100 100 100 100 100 100 100 100 100 100 100 100 100 100 100 100 100 100 100 100 100 100 100 100 100 100 100 100 100 100 57 12 19 12 52 25 68 8 41 5 5 5 5 5 5 11 70 79 100 100 100 100
5 5 10 100 100 100 100 100 100 100 100 100 100 100 100 100 100 100 100 100 100 100 100 100 100 100 100 100 100 100 66 50 46 59 60 49 95 99 6 5 0 73 85 10 66 98 44 65 100 91 100 100 100 100
5 5 0 59 89 99 100 100 100 100 100 100 100 100 100 100 100 100 100 100 100 99 100 100 100 98 100 100 91 53 80 96 46 97 100 76 5 15 32 17 0 5 5 81 100 100 100 90 50 100 82 100 84 100
5 5 3 83 100 39 83 100 100 100 100 100 100 100 100 100 100 100 100 100 100 100 100 98 99 100 78 93 91 55 71 98 97 96 48 5 5 5 38 0 2 4 5 39 99 100 78 88 98 86 43 100 78 90
4 3 1 5 37 88 5 16 100 100 100 100 100 100 100 100 100 100 100 100 100 100 100 96 99 100 87 86 94 100 99 88 50 58 56 44 62 32 6 5 10 90 100 100 82 97 93 87 100 100 100 100 100 95
18 0 0 1 18 53 80 58 84 100 100 100 100 100 100 100 100 100 100 100 100 100 100 100 100 100 100 90 87 31 69 68 74 34 52 83 42 81 88 17 100 100 99 100 99 91 94 100 100 100 100 100 100 100
81 9 0 2 54 98 100 100 100 100 100 100 100 88 94 100 100 100 100 100 100 100 100 100 100 100 96 99 85 32 72 71 87 31 55 70 84 100 94 100 100 100 100 100 97 91 100 100 100 100 100 100 100 100
98 56 2 0 2 80 100 100 100 100 100 42 59 99 100 96 50 25 58 81 100 100 100 86 35 10 99 72 100 78 59 90 74 81 100 73 91 95 91 99 87 79 78 100 99 90 100 100 100 100 100 100 100 100
100 94 29 0 0 60 97 100 100 100 100 100 100 100 100 62 74 27 84 93 84 6 5 14 19 5 83 98 82 63 100 79 55 100 63 74 91 94 97 86 77 82 75 100 98 77 67 92 100 100 100 100 100 100
100 60 98 3 0 45 100 100 100 100 100 100 100 100 91 96 33 5 5 5 5 5 5 5 32 5 30 98 96 100 54 98 99 99 66 68 38 85 77 39 72 80 99 100 100 96 98 100 74 49 99 100 100 100
97 6 100 22 0 87 100 100 100 100 100 100 100 100 77 25 52 29 7 28 86 36 5 73 39 46 37 86 95 74 100 100 86 12 52 94 78 73 76 96 89 75 90 94 69 88 92 54 27 13 51 80 96 85
18 5 57 94 32 100 100 100 100 100 100 100 16 77 92 100 100 100 100 95 100 88 56 51 97 89 71 43 99 97 73 56 92 83 80 89 95 65 100 100 100 100 100 99 83 37 40 24 44 70 82 43 71 51
55 16 30 100 100 100 100 100 100 100 100 91 98 98 95 82 76 100 95 100 100 80 39 100 99 69 58 74 100 100 99 60 94 100 96 19 45 63 100 100 100 64 64 85 55 28 20 14 5 60 45 54 48 74
18 51 100 100 100 100 100 100 100 96 91 86 64 100 97 85 83 91 45 73 96 78 43 51 100 80 99 37 59 57 92 100 100 89 76 52 34 42 46 72 93 100 68 34 9 29 57 47 61 89 99 88 53 83
58 82 100 100 100 100 100 100 95 98 94 93 96 81 86 94 92 91 96 66 76 86 100 100 100 88 77 82 91 100 84 82 88 99 100 99 100 100 100 84 52 44 31 58 75 59 57 6 19 81 92 72 91 95
14 100 100 100 100 95 84 74 54 10 72 73 64 81 80 59 72 94 99 100 100 90 88 84 100 100 100 70 70 53 69 96 100 100 100 100 72 36 30 11 17 20 52 58 77 67 75 67 73 76 72 45 15 57
100 100 100 100 89 100 100 96 90 24 71 52 39 26 100 100 100 100 100 89 94 96 97 91 94 93 96 100 85 5 5 11 28 11 22 94 100 64 86 83 68 76 76 81 97 96 69 70 74 81 85 80 54 7
99 100 100 99 81 90 71 96 99 82 39 82 100 100 100 100 100 100 95 100 88 65 68 86 84 100 99 97 100 53 10 11 18 41 54 50 83 85 89 89 96 99 95 70 66 81 60 55 92 77 62 77 84 31
100 100 100 100 100 100 100 100 100 100 100 100 100 100 100 100 99 88 81 59 51 74 82 75 79 70 85 99 80 68 53 50 67 80 82 75 78 83 98 81 69 79 100 95 73 57 24 44 66 84 80 80 98 40
100 100 100 100 100 100 100 100 100 100 100 100 97 91 96 93 72 60 55 67 61 99 89 96 68 100 97 86 90 96 79 72 86 91 94 100 100 95 91 95 92 95 88 71 73 59 66 26 70 90 96 87 100 100
100 100 100 100 100 100 100 100 100 100 100 100 100 100 86 70 64 71 66 59 100 100 100 76 63 73 78 98 100 95 79 72 68 96 89 98 100 100 100 100 100 96 84 79 100 93 98 77 90 88 86 79 72 96
49 70 100 100 100 100 100 100 100 100 100 98 96 84 80 74 81 69 72 76 94 92 95 95 93 93 86 79 87 100 99 86 87 89 88 83 97 100 97 99 99 85 83 82 89 99 97 98 92 72 67 49 63 84
93 90 90 95 100 100 100 98 90 87 94 97 95 93 84 93 77 78 88 95 100 85 81 91 77 84 98 100 92 89 65 53 59 69 67 65 68 85 74 72 86 89 63 86 84 77 99 100 100 100 100 98 98 99
100 100 100 97 100 100 100 100 100 100 100 99 93 74 79 86 98 78 75 73 98 100 100 100 100 100 100 88 82 69 92 73 66 74 85 91 92 65 64 79 91 70 76 95 99 100 100 100 100 99 95 98 100 98
100 100 100 100 100 100 100 96 92 63 60 62 78 84 81 92 100 100 100 99 100 100 100 100 100 96 84 81 83 74 92 96 77 59 81 100 100 99 73 63 79 100 89 61 89 90 65 98 91 72 49 24 74 81
100 87 89 92 76 51 88 93 77 78 55 56 54 70 98 100 100 100 100 100 100 100 100 100 100 100 100 99 100 99 81 72 100 96 95 87 70 84 94 64 66 86 87 94 91 77 74 99 89 41 93 99 64 79
100 99 86 61 35 36 91 82 40 67 69 67 84 79 100 100 83 76 93 98 100 98 91 100 100 86 100 100 100 100 95 99 100 100 100 100 91 69 70 76 92 96 65 94 56 77 100 100 97 95 100 100 100 93
98 100 100 88 96 99 73 76 92 81 88 70 58 91 100 100 100 99 76 100 100 99 98 100 88 100 100 100 98 97 100 100 100 100 100 100 100 100 93 64 55 89 98 100 95 100 70 62 66 70 80 83 80 86
89 92 92 92 28 29 23 35 78 88 88 99 94 86 88 100 100 100 53 99 100 92 100 87 97 100 100 100 100 100 100 100 100 100 100 100 100 100 100 100 96 95 100 100 100 100 100 99 100 99 97 62 57 52

GFSWCAN_prec_cloud_132.txt.gz
Cloud_Cover
100 100 100 100 100 100 100 100 100 100 100 100 100 100 100 100 100 100 100 100 100 100 100 100 100 100 100 100 100 100 100 100 100 100 100 100 100 100 100 100 100 100 100 60 78 98 49 5 0 2 16 98 100 100
100 100 100 100 100 100 100 100 100 100 100 100 100 100 100 100 100 100 100 100 100 100 100 100 100 100 100 100 100 100 100 100 100 100 98 80 92 100 100 100 100 84 4 5 5 4 5 5 5 17 10 19 100 100
100 100 100 100 100 100 100 100 100 100 100 100 100 100 100 100 100 100 100 100 100 100 100 100 100 100 100 100 100 100 100 100 100 100 100 100 100 100 100 100 100 30 5 5 5 5 5 5 5 5 5 5 100 100
100 100 100 100 100 100 100 100 100 100 100 100 100 100 100 100 100 100 100 100 100 100 100 100 100 100 100 100 100 100 100 100 100 100 100 100 100 100 100 100 100 5 27 10 14 4 5 5 5 5 5 5 78 100
100 100 100 100 100 100 100 100 100 100 100 100 100 100 100 100 100 100 100 100 100 97 100 100 94 86 95 100 100 100 100 100 100 100 100 100 100 100 99 18 53 5 5 5 5 4 5 5 5 5 7 76 59 100
100 100 100 100 100 100 100 100 100 100 100 100 100 100 100 100 100 100 100 100 100 100 100 100 100 100 100 100 100 100 100 100 100 100 100 100 100 100 91 7 5 5 13 5 5 5 5 6 100 48 28 78 49 100
100 100 100 100 100 100 100 100 100 100 100 100 100 100 100 100 100 100 100 100 100 100 100 100 100 100 100 100 100 100 100 100 100 100 100 100 72 37 22 17 5 5 18 16 5 75 100 84 84 100 91 46 51 100
7 86 100 100 100 100 100 100 100 100 100 100 100 100 100 100 100 100 100 100 100 100 100 100 100 100 100 100 100 100 100 100 92 74 48 67 50 10 5 1 0 4 5 25 59 58 88 92 95 100 83 67 23 86
5 5 44 100 100 100 100 100 100 100 100 100 100 100 100 100 100 100 100 100 100 100 100 100 100 100 100 84 84 43 64 87 53 82 89 64 25 52 5 6 54 57 98 100 100 100 90 49 100 100 99 100 100 100
5 5 24 100 100 100 100 100 100 100 100 100 100 100 100 100 100 100 100 100 100 100 100 87 93 100 91 100 100 95 98 100 100 79 57 88 32 8 49 5 63 80 100 100 97 93 54 68 100 100 100 100 100 100
3 2 3 67 100 94 100 100 100 100 100 100 88 98 100 100 100 100 100 100 100 100 100 100 98 100 95 97 91 93 82 75 84 54 85 80 90 94 100 98 99 100 100 99 85 75 23 22 100 81 100 100 100 100
3 4 0 5 8 7 45 100 100 100 100 100 97 100 100 100 100 94 99 100 100 100 92 67 84 99 100 100 100 100 95 93 80 97 98 88 83 80 94 93 100 100 95 70 25 20 6 80 100 100 100 100 100 100
5 3 1 5 5 85 100 100 100 100 100 100 100 100 100 100 100 100 100 100 100 100 100 100 100 100 99 99 100 100 100 78 84 100 40 8 62 89 92 75 79 68 99 14 5 8 77 97 70 92 100 100 100 100
7 4 1 5 6 100 100 100 100 100 100 100 100 90 77 80 59 100 99 74 75 97 80 10 26 6 67 92 61 82 71 91 98 99 31 72 82 98 66 49 5 12 21 52 45 24 5 5 23 16 73 67 38 77
90 59 45 1 35 100 100 100 100 100 92 100 72 84 72 32 42 18 26 39 89 16 5 11 24 8 76 59 75 90 99 100 71 17 29 73 54 80 89 84 36 6 6 40 43 46 68 45 10 58 61 53 6 41
96 100 93 11 100 100 100 100 100 100 100 100 89 60 72 63 58 64 10 44 98 85 64 58 87 47 18 92 93 47 8 100 59 62 80 79 94 65 76 14 5 46 42 21 31 37 53 52 43 66 52 73 78 66
100 100 87 54 85 100 100 100 100 100 100 77 96 99 100 70 8 36 98 100 100 29 14 58 77 90 58 31 6 5 85 81 80 92 100 23 36 60 26 5 47 40 72 64 60 48 30 20 52 69 83 46 65 81
100 100 100 100 100 100 100 100 100 91 100 98 99 100 100 91 96 92 91 100 100 65 35 26 98 92 88 35 65 34 94 99 100 99 85 63 36 29 8 87 99 68 5 44 18 68 71 68 67 89 97 98 92 100
100 100 100 100 100 100 100 90 98 78 99 100 100 97 94 98 100 99 100 100 100 98 75 59 69 70 46 40 62 96 93 98 94 97 98 64 10 46 50 48 48 27 8 46 56 53 52 19 60 89 91 97 96 100
100 100 100 100 100 91 87 97 91 91 96 98 100 93 74 78 86 98 96 100 96 90 98 96 98 96 24 56 65 58 48 19 39 87 99 100 90 56 47 11 62 50 74 78 70 67 70 72 81 81 68 7 24 92
100 100 100 100 90 10 36 33 100 100 100 100 94 12 98 71 80 77 86 48 100 100 100 99 99 85 100 100 71 18 31 5 5 5 22 98 100 23 76 68 64 88 90 100 99 100 70 68 72 90 75 75 43 22
100 99 100 100 80 26 24 49 84 100 97 66 70 10 97 94 94 82 94 100 100 86 75 80 70 89 100 99 97 27 5 5 5 29 60 55 92 96 99 94 79 100 82 91 99 86 77 68 98 76 70 90 94 59
100 100 100 99 76 30 56 76 33 44 84 90 84 77 99 100 100 100 100 100 99 68 84 70 84 100 100 99 69 49 34 28 30 45 56 63 75 75 76 96 79 91 100 96 83 92 98 82 81 96 90 93 100 48
100 100 100 97 92 89 91 100 100 100 100 100 100 100 100 100 100 100 100 90 46 99 100 100 94 99 100 93 97 98 92 37 68 82 52 49 96 100 85 85 88 90 76 72 95 100 98 93 81 84 100 100 100 100
100 100 100 100 100 100 100 100 100 100 100 100 100 100 100 100 100 92 57 39 98 100 99 100 99 63 70 99 100 100 88 58 66 91 98 73 98 100 100 99 100 95 94 97 100 100 100 100 100 100 100 100 67 100
100 100 100 100 100 100 100 100 100 100 100 100 100 100 100 100 95 88 49 60 87 75 87 86 89 82 85 68 88 100 92 90 75 74 96 93 91 96 93 94 97 100 92 80 99 100 100 100 100 98 98 80 84 91
100 91 100 100 100 100 100 100 100 100 100 100 99 100 100 93 87 91 99 100 100 99 86 68 72 88 92 83 85 84 72 62 78 87 89 97 99 99 100 99 100 100 97 94 84 86 89 100 100 100 100 100 84 98
92 96 100 97 100 100 100 100 100 100 88 80 99 100 100 100 100 100 100 83 83 80 69 59 71 100 100 96 78 90 99 98 100 100 100 97 100 94 69 75 87 90 90 87 100 100 100 100 100 100 100 86 94 99
49 61 62 81 93 98 98 92 93 75 93 100 100 100 100 100 100 100 100 100 100 100 100 100 100 80 99 100 83 76 72 67 55 74 66 100 96 81 96 99 98 83 82 68 90 86 97 99 100 80 85 88 98 100
100 85 91 90 94 90 100 96 82 82 58 70 92 96 100 100 100 100 100 100 100 100 100 100 100 77 97 100 100 100 93 99 100 99 73 99 100 100 100 100 100 100 100 100 100 100 100 100 100 98 96 96 78 78
82 78 57 61 44 68 95 97 56 74 87 87 87 100 100 100 100 98 99 100 100 77 71 99 98 84 100 100 100 99 100 100 100 100 100 100 100 100 100 100 100 100 100 100 100 100 100 100 100 100 100 100 100 100
72 81 85 69 72 74 58 81 96 83 98 78 41 94 61 99 84 29 78 99 100 100 85 59 100 100 100 100 100 100 100 100 100 100 100 100 100 100 100 100 100 100 100 100 100 98 75 100 100 100 100 100 94 99
98 98 100 94 44 10 27 38 73 56 77 100 100 99 92 42 86 80 99 100 100 100 100 100 100 100 100 99 100 100 100 100 100 100 100 100 100 100 100 100 100 100 100 100 100 100 96 100 100 100 100 100 99 80

GFSWCAN_prec_cloud_135.txt.gz
Cloud_Cover
100 100 100 100 100 100 100 100 100 100 100 100 100 100 100 100 100 100 100 100 100 100 100 100 100 100 100 100 100 97 100 100 100 100 100 100 100 100 100 100 100 100 100 100 100 100 100 100 5 5 4 5 6 43
100 100 100 100 100 100 100 100 100 100 100 100 100 100 100 100 100 100 100 100 100 100 100 100 100 100 100 100 100 100 100 100 100 100 100 100 100 100 100 100 100 100 100 100 100 100 100 66 5 5 5 5 39 12
100 100 100 100 100 100 100 100 100 100 100 100 100 100 100 100 100 100 100 100 100 100 100 100 100 100 100 100 100 100 94 100 100 99 100 100 100 100 100 100 100 100 100 100 100 100 17 5 5 5 5 5 14 50
100 100 100 100 100 100 100 100 100 100 100 100 100 100 100 100 100 100 100 100 100 100 100 100 100 84 84 100 96 99 100 100 97 79 98 100 100 100 100 100 100 73 81 100 96 7 6 23 5 5 5 5 41 83
100 100 100 100 100 100 100 100 100 100 100 100 100 100 100 100 100 100 100 100 100 100 100 100 94 67 97 100 100 100 100 100 100 100 100 100 100 100 100 100 100 100 100 84 6 5 1 5 7 20 46 69 28 15
100 100 100 100 100 100 100 100 100 100 100 100 100 100 100 100 100 100 100 100 100 100 100 100 98 100 100 100 100 100 100 100 96 76 100 100 100 100 100 100 100 61 6 5 5 5 6 16 12 24 71 100 95 30
100 100 100 100 100 100 100 100 100 100 100 100 100 100 100 100 100 100 100 100 100 100 100 92 99 100 100 100 100 100 100 100 100 98 100 100 100 100 99 54 13 8 23 80 5 5 25 79 99 80 95 100 100 99
100 100 100 100 100 100 100 100 100 100 100 100 100 100 100 100 100 100 100 100 100 100 100 100 100 100 98 100 100 89 75 88 100 100 100 100 100 100 80 64 34 9 10 16 9 71 98 88 94 94 86 100 100 100
100 100 100 100 100 100 100 100 100 100 100 100 100 100 100 100 100 100 100 100 98 99 100 99 100 100 100 100 100 100 78 100 100 100 91 67 15 36 8 13 42 13 5 85 100 100 100 79 70 70 100 100 100 100
100 100 100 100 100 100 100 100 100 100 100 100 100 100 100 100 100 100 100 100 99 100 100 100 100 100 100 100 100 100 100 100 100 88 48 68 63 11 6 19 30 31 99 100 100 100 95 95 81 9 26 100 100 100
90 100 98 100 100 100 100 100 100 100 100 100 100 100 100 100 100 100 100 100 100 100 100 100 100 100 100 100 100 100 95 90 95 60 94 87 86 86 45 73 84 100 100 100 97 89 70 56 12 49 92 100 100 100
6 58 86 100 100 100 100 100 100 100 100 100 100 100 100 100 100 100 100 100 100 100 100 100 100 100 100 100 81 93 86 86 97 84 93 88 17 43 66 96 93 94 88 93 83 44 5 5 10 69 100 99 100 100
5 6 84 100 100 100 100 100 100 100 100 100 100 100 100 100 100 100 100 100 100 99 100 100 100 100 99 93 100 100 100 94 92 100 89 8 75 89 98 83 82 59 40 9 5 5 5 40 58 60 64 24 98 100
5 5 57 100 100 100 100 100 100 100 100 96 100 100 100 100 100 100 100 100 100 100 91 79 40 93 100 98 98 94 94 100 100 100 18 22 85 97 63 61 10 5 5 39 5 6 24 38 79 46 52 39 30 85
4 5 5 70 75 100 100 100 100 100 100 100 99 95 98 100 100 100 100 97 99 42 5 6 51 28 81 77 88 96 97 98 45 5 5 48 90 89 67 66 5 5 7 61 15 6 5 5 5 42 62 59 25 35
2 7 4 5 65 100 100 96 100 100 100 100 78 66 66 80 99 100 100 100 74 33 32 5 48 19 32 46 90 71 5 5 5 5 49 86 96 71 91 27 5 5 10 53 43 17 28 5 5 10 64 68 67 41
8 53 59 99 100 100 100 100 99 100 100 64 90 56 57 38 19 64 94 84 29 8 5 6 52 16 49 8 5 5 5 16 58 84 100 75 42 82 41 5 5 7 39 6 51 16 26 61 73 29 20 65 92 97
34 82 100 100 100 100 100 99 98 85 82 99 99 96 88 92 78 70 29 69 19 92 9 7 36 45 81 57 22 5 84 96 94 100 93 70 64 13 5 5 5 5 16 20 57 93 81 71 50 94 99 98 90 100
100 100 100 100 100 100 100 99 100 76 100 97 99 100 100 91 74 74 98 97 31 64 86 69 29 22 69 71 5 69 93 100 97 98 99 69 9 5 5 5 5 5 5 45 5 5 6 22 62 34 5 13 86 100
100 100 100 100 100 100 43 85 100 72 100 95 97 97 91 97 100 100 100 100 99 89 100 57 18 67 90 56 5 5 48 54 63 99 100 100 61 6 5 6 5 5 28 68 29 38 51 64 84 39 26 17 36 96
100 100 100 100 100 100 38 40 84 84 91 69 82 95 92 100 96 100 92 92 100 68 84 6 62 91 89 100 61 5 30 5 5 5 20 92 99 5 5 16 52 74 64 60 51 53 41 52 87 69 44 43 66 80
100 100 100 100 60 36 61 19 88 75 66 91 42 11 98 97 100 88 81 100 68 5 7 5 8 80 100 99 80 10 5 5 5 11 23 51 98 98 97 62 58 48 47 58 79 90 70 69 99 72 99 99 97 78
99 100 100 59 66 61 95 97 70 68 81 96 100 88 99 99 63 52 65 16 5 18 50 19 80 88 99 99 44 28 9 5 19 6 27 15 46 50 56 65 69 77 88 91 78 82 69 87 88 89 95 98 98 66
100 57 78 80 80 94 61 83 35 47 71 67 43 97 97 100 96 95 64 68 42 94 99 96 94 100 100 98 89 57 15 8 33 69 50 66 74 82 51 74 70 64 66 70 84 96 76 80 83 80 98 95 100 77
78 65 35 44 31 32 63 79 63 54 100 100 100 100 100 100 96 77 82 100 91 100 94 100 100 98 86 95 100 94 84 28 58 83 87 76 95 100 100 100 100 99 90 84 86 70 75 99 98 100 100 83 92 95
100 100 100 100 100 100 100 100 100 100 100 100 100 99 100 99 100 100 100 27 50 42 79 93 95 96 95 44 88 100 69 73 70 62 78 60 59 80 89 99 100 100 100 95 94 100 99 96 98 99 100 100 95 94
100 100 100 100 100 100 100 100 100 100 100 100 100 100 99 84 88 62 36 46 36 54 61 63 54 45 48 79 80 99 96 76 60 88 88 83 78 88 97 88 83 74 76 99 97 81 99 93 100 100 100 100 100 100
100 100 100 100 100 100 100 100 100 100 100 100 100 100 86 89 94 100 97 82 77 82 78 58 69 83 66 64 85 100 100 99 97 81 77 74 68 97 100 98 97 89 100 100 100 95 86 69 100 100 100 100 100 100
100 100 100 100 100 100 100 100 100 100 100 100 100 99 100 100 100 78 85 96 96 93 92 96 100 85 98 99 98 96 81 73 80 98 86 92 99 90 91 85 100 100 100 100 100 100 100 97 100 100 100 100 100 100
100 100 100 100 100 100 100 100 98 95 68 75 86 100 94 84 70 98 100 100 100 98 88 68 89 60 95 80 89 100 96 99 100 86 59 60 91 100 99 99 100 100 100 100 100 100 100 100 100 100 100 100 100 100
94 75 59 51 30 86 100 99 81 81 91 76 97 30 47 97 100 100 100 98 99 100 99 98 99 94 96 90 100 100 99 99 100 98 74 83 99 100 100 100 100 100 100 100 100 100 100 100 100 100 100 100 100 100
75 73 74 81 60 73 46 77 99 89 100 55 63 90 24 65 81 71 99 85 84 100 100 100 100 98 98 100 100 100 100 100 100 99 100 100 100 100 100 100 100 100 100 100 100 100 100 100 100 100 100 100 100 100
89 96 96 84 24 39 62 53 42 38 58 98 96 100 99 42 71 98 100 96 100 99 100 96 99 100 100 100 100 100 100 87 71 100 100 100 100 100 100 100 100 100 100 100 100 100 100 100 100 100 100 100 100 100

GFSWCAN_prec_cloud_138.txt.gz
Cloud_Cover
100 100 100 100 100 100 100 100 100 100 100 100 100 100 100 100 100 100 100 100 100 100 100 100 100 100 100 100 100 100 100 100 76 100 100 91 100 96 100 100 100 100 100 100 100 100 100 100 100 99 64 5 5 27
100 100 100 100 100 100 100 100 100 100 100 100 100 100 100 100 100 100 100 100 100 100 100 100 100 100 100 100 100 100 100 100 100 100 100 100 100 100 100 100 100 100 93 100 100 100 100 100 97 29 5 5 10 17
100 100 100 100 100 100 100 100 100 100 100 100 100 100 100 100 100 100 100 100 100 100 100 100 100 100 100 100 100 100 100 100 100 100 100 100 100 100 100 100 40 69 100 100 100 100 82 38 8 5 5 5 34 49
100 100 100 100 100 100 100 100 100 100 100 100 100 100 100 100 100 100 100 100 100 100 100 100 100 100 100 100 100 100 100 100 100 100 100 100 100 100 100 100 100 100 100 100 100 86 45 23 6 10 5 7 54 62
100 100 100 100 100 100 100 100 100 100 100 100 100 100 100 100 100 100 100 100 100 100 100 100 100 100 100 96 100 85 100 100 100 100 100 97 100 100 99 56 82 100 100 100 100 58 10 5 11 26 54 82 71 69
100 100 100 100 100 100 100 100 100 100 100 100 100 100 100 100 100 100 100 100 100 100 100 100 100 100 100 96 70 88 100 100 100 100 100 100 92 98 95 75 100 100 100 76 45 26 5 27 52 71 99 100 75 25
100 100 100 100 100 100 100 100 100 100 100 100 100 100 100 100 100 100 100 100 100 100 100 100 100 100 100 100 100 100 100 100 100 95 100 100 99 95 60 55 67 94 46 12 18 31 74 99 100 100 100 100 50 59
100 100 100 100 100 100 100 100 100 100 100 100 100 100 100 100 100 100 100 100 100 100 100 100 100 100 100 100 100 100 100 100 100 100 100 91 84 96 100 80 31 16 10 36 54 36 77 90 98 90 80 78 89 86
100 100 100 100 100 100 100 100 100 100 100 100 100 100 100 100 100 100 100 100 100 100 100 100 100 100 100 100 100 100 100 100 100 100 87 75 44 47 11 8 5 5 71 78 64 100 100 81 78 72 82 79 73 64
100 100 100 100 100 100 100 100 100 100 100 100 100 100 100 100 100 100 100 100 100 100 100 100 100 100 91 100 100 100 99 99 100 67 48 66 22 94 56 29 62 52 5 8 86 62 72 82 82 70 15 5 6 100
100 100 100 100 100 100 100 100 100 100 100 100 100 100 100 100 100 100 100 100 100 100 100 100 88 86 69 100 99 82 86 58 56 56 83 86 69 90 87 77 64 34 70 56 39 27 70 80 43 67 71 50 69 93
100 100 100 100 100 100 100 100 100 100 100 100 100 100 100 100 100 100 100 100 100 100 100 100 100 98 90 47 39 74 98 89 98 82 98 81 76 71 83 89 86 98 48 5 5 8 5 5 5 5 69 90 93 100
100 100 100 100 100 100 100 100 100 100 100 100 100 100 100 100 100 100 100 100 100 100 60 64 74 87 60 79 100 100 97 98 93 96 82 75 78 88 100 94 64 5 5 5 5 5 5 5 33 77 99 100 100 100
100 100 100 100 100 100 100 100 100 100 100 100 100 100 100 100 100 100 100 100 100 84 72 75 60 13 70 95 100 100 100 100 100 98 51 59 86 100 96 85 11 25 17 29 5 5 21 60 63 70 94 90 100 99
100 100 98 100 100 100 100 100 100 100 100 100 100 100 100 100 100 100 100 94 74 12 8 16 17 17 29 75 98 82 93 92 81 7 21 52 90 86 87 91 88 97 97 76 44 22 71 72 73 97 94 79 91 100
91 100 100 100 100 100 100 100 100 100 100 100 100 100 100 100 100 98 74 42 18 24 10 8 19 5 54 68 73 80 61 17 12 14 27 66 89 93 92 94 82 68 54 19 5 5 5 25 40 37 87 58 75 68
2 97 97 100 100 100 100 100 100 100 85 62 99 100 100 100 100 100 98 83 24 11 50 5 5 66 53 78 44 23 15 24 31 72 66 72 75 90 96 62 5 13 45 69 64 55 42 62 6 62 99 99 95 81
82 68 100 100 100 100 100 100 100 77 93 93 100 100 100 100 100 98 100 73 7 6 6 10 6 63 73 43 6 11 28 98 100 100 99 100 93 95 33 5 5 5 56 72 70 91 100 98 94 98 100 100 91 99
93 93 73 96 100 99 90 90 90 74 95 93 100 94 100 98 100 81 75 91 78 38 8 5 10 20 5 11 48 46 79 72 88 100 100 97 90 87 69 64 54 73 98 98 96 96 99 93 100 100 100 98 100 100
65 45 88 100 100 96 42 92 5 50 96 96 100 95 100 91 84 100 69 90 49 75 45 18 6 77 43 9 18 31 73 78 74 93 99 100 93 69 38 9 41 96 93 98 89 60 74 96 100 98 95 91 100 100
100 100 100 100 100 17 52 66 86 78 90 92 96 99 96 100 100 81 73 53 55 72 39 10 44 16 74 99 67 50 85 51 49 5 65 89 84 76 75 96 100 100 100 100 100 92 92 100 100 100 92 100 100 100
100 100 100 96 60 61 99 48 67 59 84 90 91 78 97 99 100 99 100 100 88 58 17 10 7 40 68 92 58 59 69 67 12 28 79 58 90 93 97 98 100 100 100 100 100 100 100 100 100 100 100 100 80 100
100 100 100 100 89 86 100 93 100 100 78 91 73 74 93 86 92 61 93 73 54 72 63 28 74 95 92 88 94 95 32 5 5 61 64 47 98 98 100 100 100 100 100 98 100 100 100 86 100 100 99 100 100 100
100 100 91 86 90 98 73 88 78 80 87 86 80 98 96 99 92 87 76 90 77 63 86 86 90 100 98 89 78 72 65 26 63 89 84 94 96 98 82 91 100 98 91 93 100 100 99 99 96 100 100 100 100 100
100 100 96 100 99 97 81 92 74 52 98 95 98 94 95 81 92 91 49 88 45 34 78 94 98 97 75 79 91 92 66 38 5 68 86 29 50 93 82 100 100 100 100 100 100 85 94 94 100 100 100 100 97 73
60 67 51 83 84 81 89 94 85 86 93 100 100 100 100 100 99 96 47 54 72 65 85 91 91 99 97 85 86 84 5 12 7 15 56 71 31 9 80 93 95 95 86 98 92 91 76 70 97 100 100 86 100 93
100 100 100 100 100 100 100 100 100 100 100 100 100 100 100 100 96 86 97 98 83 75 70 90 92 92 91 91 82 81 75 81 74 84 88 44 57 68 61 68 77 76 70 89 98 93 96 100 100 100 100 100 100 100
100 100 100 100 100 100 100 100 100 100 100 100 100 100 100 100 100 100 100 100 100 100 99 99 93 98 96 95 89 99 99 99 100 96 88 73 93 89 54 69 28 18 44 86 91 100 100 100 100 100 100 100 100 100
100 100 100 100 100 100 100 100 100 100 100 100 100 100 100 100 100 100 100 100 100 95 98 98 100 98 96 99 98 100 100 100 100 100 88 94 100 82 69 22 30 58 80 100 99 100 100 100 100 100 100 100 100 100
100 100 100 100 100 100 100 100 100 100 100 100 100 95 100 100 100 100 100 100 100 100 99 99 99 100 98 98 100 100 100 100 100 100 96 93 96 74 70 88 84 90 94 100 100 100 100 100 100 100 100 100 100 100
100 100 100 100 100 100 100 100 100 100 100 100 100 99 100 100 100 100 99 100 100 100 100 100 100 100 100 100 100 100 100 100 100 100 97 77 75 83 97 100 100 100 100 100 100 100 100 100 100 100 100 100 100 100
99 100 100 100 100 100 100 100 100 100 100 100 99 95 100 100 100 100 100 100 100 100 100 98 100 100 100 100 100 100 100 100 94 37 45 41 85 100 100 100 100 100 100 100 100 100 100 100 100 100 100 100 100 100
100 100 100 96 94 98 92 50 23 75 94 100 100 100 100 100 99 100 100 100 100 100 100 100 100 100 100 100 100 100 100 98 83 64 58 40 27 72 100 100 98 81 72 100 100 100 100 100 100 100 100 100 100 100

GFSWCAN_prec_cloud_141.txt.gz
Cloud_Cover
100 100 100 100 100 100 100 100 100 100 100 100 100 100 100 100 100 100 100 100 100 100 100 100 100 100 100 95 100 100 100 100 100 100 100 100 100 100 100 100 100 100 100 100 100 98 100 100 100 100 100 100 100 100
100 100 100 100 100 100 100 100 100 100 100 100 100 100 100 100 100 100 100 100 100 100 100 100 100 100 100 100 100 100 100 100 100 100 100 100 100 100 100 100 100 73 89 100 100 100 100 100 100 100 100 100 100 37
100 100 100 100 100 100 100 100 100 100 100 100 100 100 100 100 100 100 100 100 100 100 100 100 100 100 100 100 100 100 100 100 100 100 100 100 100 100 100 100 100 100 100 100 100 100 100 100 100 100 100 100 53 61
100 100 100 100 100 100 100 100 100 100 100 100 100 100 100 100 100 100 100 100 100 100 100 100 100 100 100 100 100 100 100 100 100 100 100 100 100 100 100 100 100 100 100 100 100 100 100 100 100 100 99 53 68 12
100 100 100 100 100 100 100 100 100 100 100 100 100 100 100 100 100 100 100 100 100 100 100 100 100 100 100 100 100 100 100 100 100 100 100 100 99 100 100 100 100 100 100 100 100 100 98 100 100 72 85 100 97 82
100 100 100 100 100 100 100 100 100 100 100 100 100 100 100 100 100 100 100 100 100 100 100 100 100 100 100 100 100 100 100 100 100 100 100 100 100 100 100 100 100 100 100 100 100 95 100 43 18 100 98 98 94 19
100 100 100 100 100 100 100 100 100 100 100 100 100 100 100 100 100 100 100 100 100 100 100 100 100 100 100 100 100 100 100 100 100 100 100 100 100 100 100 100 100 100 99 92 71 72 63 91 91 100 100 98 25 59
100 100 100 100 100 100 100 100 100 100 100 100 100 100 100 100 100 100 100 100 100 100 100 100 100 100 100 100 100 100 100 100 100 100 100 100 100 100 100 100 100 100 100 93 81 50 50 93 99 100 90 97 97 92
100 100 100 100 100 100 100 100 100 100 100 100 100 100 100 100 100 100 100 99 100 70 98 100 100 100 100 100 100 100 100 100 100 100 100 100 100 100 100 100 100 100 100 85 83 78 38 76 99 89 88 88 80 81
100 100 100 100 100 100 100 100 100 100 100 100 100 100 100 100 100 100 99 93 100 100 100 100 100 100 100 100 100 100 100 100 100 100 100 100 100 100 100 100 99 86 88 85 78 85 88 100 94 88 76 5 5 29
100 100 100 100 100 100 100 100 100 100 100 100 100 100 100 100 100 100 91 100 100 100 100 100 100 100 100 100 100 100 100 100 100 100 100 100 100 100 100 83 83 91 81 90 88 77 93 97 87 94 67 25 38 87
100 100 100 100 100 100 100 100 100 100 100 100 100 100 100 100 100 100 100 100 100 100 100 100 100 100 100 100 100 100 100 100 100 100 100 98 99 69 100 92 75 88 48 22 5 5 5 5 14 23 16 68 90 100
100 100 100 100 100 100 100 100 100 100 100 100 100 100 100 100 100 100 100 100 100 100 100 100 100 100 100 100 100 100 100 100 86 96 92 91 74 87 100 90 74 72 5 5 5 5 5 5 19 69 99 100 100 100
100 100 100 100 100 100 100 100 100 100 100 100 100 100 100 100 100 100 100 100 100 100 100 100 100 100 100 100 100 100 99 100 100 98 72 87 91 100 98 94 87 70 16 5 5 6 19 49 90 99 100 98 100 100
100 100 100 100 100 100 100 100 100 100 100 100 100 100 100 100 100 100 100 100 100 100 100 100 100 86 89 96 90 87 82 91 63 82 94 100 100 100 100 98 87 92 62 86 79 84 85 92 100 100 100 100 100 100
100 100 100 100 100 100 100 100 100 100 100 100 100 100 100 100 100 100 100 100 100 100 100 100 63 63 53 37 57 88 79 87 89 90 100 96 100 100 100 100 93 97 85 80 69 76 84 80 85 100 97 99 100 90
100 100 100 100 100 100 100 100 100 100 100 100 100 100 100 100 100 100 100 100 100 98 99 100 77 26 9 23 19 99 93 84 100 100 99 98 100 100 100 93 100 86 78 75 76 82 89 99 100 100 100 100 100 98
100 100 100 100 100 100 100 100 100 100 100 100 100 100 100 100 100 100 100 100 69 54 9 32 8 8 46 17 55 40 88 100 100 100 100 100 100 100 85 89 72 70 89 96 91 100 100 98 100 100 100 100 100 100
100 100 100 100 100 100 99 96 92 100 100 100 100 100 100 100 100 100 98 100 72 48 5 21 13 19 21 9 64 100 100 89 100 100 100 100 100 89 92 78 77 93 100 95 100 96 97 100 99 100 100 100 100 100
100 100 100 100 100 100 100 92 64 100 99 100 100 100 100 100 100 100 96 44 5 5 6 5 26 59 80 100 100 100 100 100 94 98 100 100 100 97 86 13 86 100 98 100 100 99 98 100 98 100 100 100 100 100
100 65 48 65 18 76 82 93 65 98 100 100 100 100 100 97 100 100 100 59 36 95 79 64 99 100 100 100 100 100 100 76 70 17 71 99 100 98 94 99 94 99 96 100 100 100 100 100 100 100 93 100 100 100
100 88 98 51 85 96 78 83 65 98 99 100 99 99 100 100 97 100 96 70 80 81 80 90 100 90 62 74 44 70 90 93 89 85 91 83 95 91 96 98 100 100 100 100 100 99 100 100 100 100 100 100 89 100
100 98 100 100 96 62 97 85 91 100 98 99 86 91 100 100 99 72 99 92 88 87 79 51 89 98 86 100 100 100 26 42 70 90 96 96 100 97 100 99 100 100 100 99 100 100 100 100 100 100 100 100 100 100
100 100 92 92 84 100 100 97 94 82 100 95 89 92 96 100 86 100 97 96 92 58 56 90 86 100 95 89 76 77 73 77 98 100 97 100 100 100 100 100 100 99 100 100 100 100 100 100 100 100 100 100 100 100
100 100 100 97 87 100 100 100 100 100 100 99 96 93 98 93 100 96 95 100 90 88 85 90 99 99 96 99 100 100 80 98 90 78 100 100 100 100 100 100 100 100 100 98 100 100 100 100 100 100 100 100 100 100
53 88 89 100 93 90 97 96 84 84 100 99 100 94 100 99 91 91 92 100 100 100 100 100 100 100 100 100 100 100 73 81 94 97 98 96 96 93 95 100 100 99 99 100 100 100 100 100 100 100 100 100 100 100
55 98 88 70 100 88 100 98 93 87 94 97 97 99 96 99 100 94 98 100 100 100 86 92 100 100 100 100 100 100 99 93 87 91 90 93 98 98 93 93 100 99 100 100 100 100 100 100 100 100 100 100 100 100
100 100 100 100 100 100 100 100 100 100 100 100 100 100 100 100 100 100 100 100 100 100 96 100 99 100 100 100 97 100 100 95 88 83 99 98 100 100 100 100 100 98 99 100 100 100 100 100 100 100 100 100 100 100
100 100 100 100 100 100 100 100 100 100 100 100 100 100 100 100 100 100 100 100 100 100 100 100 100 100 100 100 100 100 100 100 100 100 98 99 100 96 100 98 93 92 100 100 97 99 100 100 99 100 100 100 100 100
100 100 100 100 100 100 100 100 100 100 100 100 100 100 100 100 100 100 100 100 100 100 100 100 100 100 100 100 100 100 100 100 100 100 100 100 100 98 99 99 100 100 100 100 100 100 97 76 84 98 97 100 100 100
100 100 100 100 100 100 100 100 100 100 100 100 100 100 100 100 100 100 100 100 100 100 100 100 100 100 100 100 100 100 100 100 100 100 100 100 100 100 96 100 100 100 100 100 100 99 96 86 97 100 100 100 100 100
100 100 100 100 100 100 100 100 100 100 100 100 100 100 100 100 100 100 100 100 100 100 100 100 100 100 100 100 100 100 85 94 100 100 99 95 95 100 100 100 100 100 100 100 100 99 69 80 100 100 100 100 100 100
100 100 100 100 100 100 100 100 100 100 100 100 100 100 100 100 100 100 100 100 100 100 100 100 100 100 100 100 100 97 100 100 100 82 85 97 99 97 100 100 100 100 100 100 100 98 100 100 100 100 100 100 100 100

GFSWCAN_prec_cloud_144.txt.gz
Cloud_Cover
100 100 100 100 100 100 100 100 100 100 100 100 100 100 100 100 100 100 100 74 10 18 5 72 100 54 17 100 97 93 100 100 100 100 100 96 89 48 96 100 100 100 100 100 100 100 100 100 100 93 76 85 100 100
100 100 100 100 100 100 100 100 100 100 100 100 100 100 100 100 100 100 100 99 57 99 100 75 100 94 68 89 56 10 15 95 97 98 100 100 100 100 100 100 100 100 100 100 100 100 100 100 92 100 65 84 100 100
100 100 100 100 100 100 100 100 100 100 100 100 100 100 100 100 100 100 100 100 100 100 100 100 100 100 100 100 95 100 100 100 100 100 100 100 100 100 100 100 100 100 100 100 100 100 100 93 100 100 100 69 100 100
100 100 100 100 100 100 100 100 100 100 100 100 100 100 100 100 100 100 100 100 100 100 100 100 100 100 100 100 100 100 100 100 100 100 100 100 100 100 100 100 100 100 100 100 100 100 100 94 77 100 100 100 100 100
100 100 100 100 100 100 100 100 100 100 100 100 100 100 100 100 100 100 100 100 100 100 100 100 100 100 100 100 100 100 100 100 100 100 100 100 100 100 100 100 100 100 100 99 100 100 99 100 100 100 100 100 100 95
100 100 100 100 100 100 100 100 100 100 100 100 100 100 100 100 100 100 100 100 100 100 100 100 100 100 100 100 100 100 100 100 100 100 100 100 100 100 100 100 100 100 100 100 100 100 100 100 100 100 100 100 30 5
100 100 100 100 100 100 100 100 100 100 100 100 100 100 100 100 100 100 100 100 100 100 100 100 100 100 100 100 100 100 100 100 100 100 100 100 100 100 100 100 100 100 100 100 100 100 100 100 100 100 89 37 13 74
100 100 100 100 100 100 100 100 100 100 100 100 100 100 100 100 100 100 100 100 100 100 100 100 100 100 100 100 100 100 100 100 100 100 100 100 100 100 100 100 100 100 100 100 100 100 100 100 100 100 79 84 92 100
100 100 100 100 100 100 100 100 100 100 100 100 100 100 100 100 100 100 100 100 100 100 100 100 100 100 100 100 100 100 100 100 100 100 100 100 100 100 100 100 100 100 100 100 100 100 100 100 100 98 93 88 86 88
100 100 100 100 100 100 100 100 100 100 100 100 100 100 100 100 100 100 100 100 100 100 100 100 100 100 100 100 100 100 100 100 100 98 100 100 100 96 99 100 100 100 100 100 100 100 94 90 98 90 53 5 5 21
100 100 100 100 100 100 100 100 100 100 100 100 100 100 100 100 100 100 100 99 97 100 100 100 100 100 100 100 100 100 100 100 98 100 100 100 100 100 100 100 100 100 100 100 99 70 95 45 95 5 5 5 8 47
100 100 100 100 100 100 100 100 100 100 100 100 100 100 100 100 99 96 100 98 80 100 100 100 92 100 100 93 100 100 100 100 100 100 100 100 100 100 100 100 100 100 76 17 5 5 5 19 43 10 5 68 82 96
100 100 100 100 100 100 100 100 100 100 100 100 100 100 93 99 100 99 100 99 100 100 100 100 100 100 100 100 100 100 100 100 100 100 100 100 100 100 99 100 100 87 5 5 5 5 5 5 5 12 14 94 97 93
100 100 100 100 100 100 100 100 100 100 100 100 100 100 100 100 100 100 100 100 100 100 100 100 100 100 100 100 100 100 100 100 100 100 100 100 100 100 100 100 80 75 5 5 5 24 57 59 49 75 66 30 96 98
100 100 100 100 100 100 100 100 100 100 100 100 100 100 100 100 100 100 100 100 100 100 100 100 100 100 100 100 100 100 100 100 100 100 99 100 89 100 100 83 5 5 5 7 5 5 7 32 58 79 92 84 27 35
100 100 100 100 100 100 100 100 100 100 100 100 100 100 100 100 100 100 100 100 100 100 100 100 100 100 100 100 100 100 100 83 71 98 100 97 100 100 98 17 6 5 21 66 54 52 31 5 48 94 66 15 5 6
100 100 100 100 100 100 100 100 100 100 100 100 100 100 100 100 100 100 100 100 100 100 100 100 100 100 100 100 100 66 85 100 100 100 100 100 100 100 88 92 100 84 58 60 71 17 37 64 5 5 82 88 86 14
100 100 100 100 100 100 100 100 100 100 100 100 100 100 100 100 100 100 100 100 100 100 100 100 100 100 100 90 56 100 100 100 100 100 100 100 100 100 100 100 89 64 66 71 5 75 56 5 48 100 75 93 95 66
100 100 100 100 100 100 100 100 100 100 100 100 100 100 100 100 100 100 100 100 100 100 100 100 100 97 37 79 100 98 100 100 90 98 100 100 100 100 100 88 68 87 76 45 75 98 48 63 100 54 84 69 100 80
100 100 100 100 100 100 100 100 100 100 100 100 100 100 100 100 100 100 100 100 100 100 100 100 100 89 69 100 100 100 100 100 100 100 100 100 100 97 92 32 78 93 74 62 96 90 85 99 96 87 76 35 100 84
100 100 100 51 100 94 100 100 100 100 100 100 100 100 100 100 100 100 100 100 98 95 71 97 100 100 100 100 100 100 100 100 100 68 100 100 100 100 75 95 67 80 83 91 100 98 95 80 66 100 24 54 73 86
100 100 100 100 100 100 100 100 100 100 100 100 100 100 100 100 100 100 100 99 54 21 51 100 95 100 90 75 99 100 100 100 100 94 79 99 100 82 95 81 92 94 91 92 85 64 77 77 51 23 75 94 92 82
50 99 72 100 100 100 100 100 100 97 100 92 92 99 100 100 98 58 91 74 80 98 100 86 100 94 90 100 100 100 100 100 100 100 100 90 99 85 89 89 86 97 96 90 85 38 84 82 29 76 100 76 96 100
100 100 96 83 74 95 95 98 93 90 70 98 90 95 99 98 81 88 88 84 100 89 64 100 100 100 100 100 99 98 61 100 100 100 100 100 100 100 100 89 99 94 86 62 82 70 80 74 36 98 99 91 84 90
86 74 87 100 83 98 100 96 96 99 98 82 61 98 91 90 100 81 92 96 97 100 100 98 100 100 100 100 100 100 78 100 100 100 100 100 100 100 100 94 94 95 85 76 96 80 100 70 86 93 97 80 100 84
100 96 91 100 94 88 95 98 90 89 98 97 100 91 93 99 98 100 100 100 100 100 100 100 100 100 96 100 100 100 82 100 100 98 100 100 100 92 92 90 72 95 88 69 87 96 54 93 100 97 100 86 96 59
86 100 100 73 99 96 91 100 100 92 98 100 100 100 94 94 100 100 98 98 99 99 100 100 100 100 99 100 100 100 96 100 100 99 94 100 100 100 97 95 98 82 22 5 82 95 88 77 92 92 95 94 76 17
75 77 100 95 99 90 100 100 100 100 98 88 98 98 98 100 100 100 100 100 99 98 90 96 100 96 100 100 100 100 100 100 100 97 70 96 100 100 98 97 100 88 22 31 96 97 98 62 82 86 77 98 90 47
100 100 100 100 100 99 95 99 100 100 100 100 100 100 100 100 100 100 100 100 100 100 100 100 100 100 100 92 100 100 100 100 100 100 100 100 99 100 95 100 96 98 58 91 100 100 100 99 78 87 95 88 99 66
100 100 100 100 100 100 100 100 100 100 100 100 100 100 100 100 100 100 100 100 100 100 100 100 100 99 100 100 97 100 99 100 100 100 100 100 99 98 99 100 100 100 98 100 94 81 72 62 40 66 96 100 90 83
100 100 100 100 100 100 100 100 100 100 100 100 100 100 100 100 100 100 100 100 100 100 100 100 100 100 100 100 100 96 100 96 100 99 100 100 91 100 100 99 99 100 100 100 100 100 100 88 66 86 98 87 98 100
100 100 100 100 100 100 100 100 100 100 100 100 100 100 100 100 100 100 100 100 100 100 100 100 100 100 100 100 100 100 100 87 99 100 100 100 100 100 100 100 100 100 100 100 100 100 91 65 66 99 100 100 100 100
100 100 100 100 100 100 100 100 100 100 100 100 100 100 100 100 100 100 100 99 100 100 100 100 100 100 98 100 100 98 100 100 100 100 100 100 100 100 100 100 100 100 100 100 100 100 100 100 100 100 100 100 100 100

GFSWCAN_prec_cloud_147.txt.gz
Cloud_Cover
100 100 100 100 100 100 100 100 100 100 100 100 100 100 100 100 100 100 100 100 100 100 61 0 0 2 54 36 5 1 13 61 99 100 92 99 49 5 5 24 5 54 100 85 96 100 100 100 64 97 100 100 100 100
100 100 100 100 100 100 100 100 100 100 100 100 100 100 100 100 100 100 100 100 100 100 97 5 0 0 1 11 19 5 6 18 49 100 100 96 11 5 5 5 37 75 99 100 100 100 100 99 100 100 100 100 100 100
100 100 100 100 100 100 100 100 100 100 100 100 100 100 100 100 100 100 100 100 100 100 80 45 7 6 13 11 30 100 79 97 69 87 100 86 57 100 100 76 95 100 100 100 100 100 100 100 100 100 100 100 100 100
100 100 100 100 100 100 100 100 100 100 100 100 100 100 100 95 98 100 100 100 100 100 100 78 5 22 93 100 100 97 41 20 99 100 100 77 100 100 100 100 100 100 100 100 100 100 100 100 100 100 100 100 100 100
100 100 100 100 100 100 100 100 100 100 100 100 100 100 100 88 100 100 100 100 78 41 83 100 90 95 100 100 100 100 100 78 94 100 100 100 100 100 100 100 100 100 100 100 100 100 100 100 100 100 100 100 100 100
100 100 100 100 100 100 100 100 100 100 100 100 100 100 100 100 100 100 100 100 100 100 100 100 100 100 100 100 100 100 100 100 100 100 100 100 100 100 100 100 100 100 100 100 100 100 100 100 100 100 100 100 99 79
100 100 100 100 100 100 100 100 100 100 100 100 100 100 100 100 100 100 100 100 100 100 100 100 100 100 100 100 100 100 100 100 100 100 100 100 100 100 100 100 100 100 100 100 100 100 100 100 100 100 100 100 100 100
100 100 100 100 100 100 100 100 100 100 100 100 100 100 100 100 100 100 100 100 100 100 100 100 100 100 100 100 100 100 100 100 100 100 100 100 100 100 100 100 100 100 100 100 100 100 100 100 100 100 100 100 100 91
100 100 100 100 100 100 100 100 100 100 100 100 100 100 100 100 100 100 100 100 100 100 100 100 100 100 100 100 100 100 100 100 100 100 100 100 100 100 100 100 100 100 100 100 100 100 100 100 100 100 100 100 100 18
100 100 100 100 100 100 100 100 100 100 100 100 100 100 100 100 100 100 100 100 100 100 100 100 100 100 100 100 100 100 100 100 100 100 100 100 100 100 100 100 100 100 100 100 100 100 100 100 100 100 64 5 5 5
100 100 100 100 100 100 100 100 100 100 100 100 100 100 100 100 100 100 100 100 100 100 100 100 100 100 100 100 100 100 100 100 100 100 100 100 100 100 100 100 100 100 100 100 100 100 100 100 92 7 5 5 5 5
100 100 100 100 100 100 100 100 100 100 100 100 100 100 100 100 100 100 100 100 100 100 100 100 100 100 100 100 100 100 100 100 100 100 100 100 100 100 100 100 100 100 100 100 100 98 52 6 5 5 5 5 5 8
100 100 100 100 100 100 100 100 100 100 100 100 100 100 100 100 100 100 100 100 100 100 100 100 100 100 100 100 100 100 100 100 100 100 100 100 100 100 100 100 100 99 87 53 8 5 5 5 5 5 9 14 14 8
100 100 100 100 100 100 100 100 100 100 100 100 100 100 100 100 100 100 100 100 100 100 100 100 100 100 100 100 100 100 100 100 100 100 100 100 100 100 100 99 66 18 5 5 5 5 20 10 6 5 11 5 29 72
100 100 100 100 100 100 100 100 100 100 100 100 100 100 100 100 100 100 100 100 100 100 100 100 100 100 100 100 100 100 100 100 100 100 100 100 100 100 100 77 5 5 5 5 5 7 24 5 25 81 27 5 5 5
100 100 100 100 100 100 100 100 100 100 100 100 100 100 100 100 100 100 100 99 100 100 90 96 100 96 100 100 100 100 100 100 100 100 100 100 100 100 99 69 5 5 5 20 9 26 36 48 79 78 8 5 5 8
100 100 100 100 100 100 100 100 100 100 100 100 100 100 100 100 100 100 100 100 100 100 100 100 97 100 100 100 100 100 100 100 100 100 100 100 97 92 76 51 52 52 34 60 28 5 54 23 5 5 56 70 23 20
100 100 100 100 100 100 100 100 100 100 100 100 100 100 100 100 100 100 100 100 100 100 100 100 100 100 100 100 100 100 100 100 100 100 100 100 100 95 22 72 19 5 57 31 5 73 5 5 14 5 12 16 8 66
100 100 100 100 100 100 100 100 100 100 100 100 100 100 100 100 100 100 100 100 100 100 100 100 100 100 100 100 100 100 100 100 100 100 100 100 100 100 96 87 5 54 5 14 92 38 5 5 18 20 39 13 21 16
100 100 100 100 100 100 100 100 100 100 100 100 100 100 100 100 100 100 100 100 100 100 100 100 100 100 100 100 100 100 100 100 82 99 100 100 100 100 96 68 88 17 5 6 5 5 5 100 100 31 23 7 86 97
100 100 100 100 100 100 100 100 100 100 100 100 100 100 100 100 100 100 100 100 100 100 100 100 100 100 100 100 100 100 100 100 100 65 82 100 100 100 74 72 8 5 19 5 46 5 5 63 78 77 6 80 100 73
100 100 100 100 100 100 100 100 100 100 100 100 100 100 100 100 98 100 100 100 100 100 100 100 100 100 100 100 100 100 100 100 98 48 85 97 100 90 93 86 5 19 5 46 5 5 24 58 21 47 65 56 53 9
100 100 100 100 85 100 100 58 80 98 100 100 100 100 100 100 90 97 86 42 100 100 100 100 100 100 88 100 100 100 100 100 88 95 88 100 94 14 96 16 5 5 5 39 5 8 65 100 74 6 49 63 62 47
100 100 100 100 80 96 51 74 66 66 73 98 81 98 100 98 33 43 75 97 100 98 80 100 100 100 100 100 100 100 100 100 100 100 100 100 98 97 89 32 25 72 18 5 6 30 87 100 69 42 58 26 64 49
100 100 98 100 97 93 96 100 100 100 69 90 22 94 95 100 94 28 98 100 100 100 100 100 100 100 94 97 100 100 100 100 100 100 100 100 100 99 100 100 100 99 100 90 70 92 21 77 85 40 50 27 52 65
98 78 98 92 96 98 99 81 41 15 5 11 98 61 92 92 56 65 99 100 100 99 100 100 100 100 100 100 100 100 100 100 100 100 100 100 100 85 82 88 89 90 97 100 64 22 5 8 50 42 22 44 70 89
81 100 100 69 96 69 88 80 78 5 69 98 100 100 91 68 100 100 100 100 98 96 100 100 100 100 100 100 100 100 100 100 98 94 98 100 100 100 87 28 8 5 46 56 75 78 21 46 62 40 34 46 14 18
80 88 100 73 100 94 91 73 100 81 81 97 79 99 96 98 98 100 100 100 100 100 57 95 100 100 99 100 100 100 100 100 100 100 100 100 100 100 100 93 98 97 86 64 44 40 50 44 76 49 39 74 55 19
93 94 98 100 99 100 96 91 97 97 90 100 91 98 99 92 100 98 99 100 100 100 100 100 100 100 100 100 90 99 100 100 100 98 100 100 100 100 100 100 98 98 100 98 88 79 92 55 60 39 71 99 76 98
100 100 100 100 99 92 98 92 95 91 90 97 82 95 97 100 100 100 100 99 100 100 100 100 100 100 100 100 100 100 95 96 100 97 100 99 100 100 100 100 91 95 100 100 100 100 100 100 100 100 91 92 100 100
100 100 100 100 100 100 100 100 100 100 100 100 100 100 100 100 100 100 100 100 100 100 100 100 100 100 100 100 100 99 100 98 100 100 100 96 100 100 99 95 100 100 100 100 100 100 100 100 100 100 100 100 100 100
100 100 100 100 100 100 100 100 100 100 100 100 100 100 100 100 100 100 100 100 100 100 100 100 100 100 100 100 100 100 100 98 97 100 98 100 100 100 100 100 100 100 100 100 100 100 100 100 100 100 100 100 100 100
100 100 100 100 100 100 100 100 100 100 100 100 100 100 100 100 100 100 100 100 100 100 100 100 100 100 100 100 100 100 100 100 100 92 92 97 100 100 100 100 100 100 100 100 100 97 99 100 100 100 100 99 99 100

GFSWCAN_prec_cloud_150.txt.gz
Cloud_Cover
5 95 100 100 100 100 100 100 100 100 100 100 100 100 100 100 100 100 100 97 100 100 70 8 3 66 100 100 100 29 93 30 70 76 99 91 95 87 89 18 20 99 84 88 100 100 66 38 16 45 100 100 100 100
100 100 100 100 100 100 100 100 100 100 100 100 100 100 100 100 100 100 100 100 100 100 89 40 4 69 98 99 100 82 0 0 0 35 96 100 92 5 4 5 5 5 6 96 74 36 93 76 100 100 100 100 100 100
100 100 100 100 100 100 100 100 100 100 100 100 100 100 100 100 100 100 100 100 100 100 100 97 5 21 90 36 98 100 24 5 6 53 100 100 100 27 5 5 5 16 57 57 100 92 50 63 100 100 100 100 100 100
100 100 100 100 100 100 100 100 100 100 100 100 100 100 100 100 100 100 100 100 100 100 100 100 69 4 10 96 86 72 73 100 100 84 86 63 88 82 41 40 100 100 100 100 100 100 100 100 100 100 100 100 100 84
100 100 100 100 100 100 100 100 100 100 100 100 100 100 100 100 100 100 100 100 100 100 76 97 93 5 90 95 74 19 77 100 14 100 98 98 62 100 29 86 100 100 100 84 99 100 100 100 100 100 100 100 100 100
100 100 100 100 100 100 100 100 100 100 100 100 100 100 100 100 100 100 100 100 100 100 100 97 24 27 43 79 100 100 98 100 86 99 99 88 99 100 100 98 100 100 100 100 100 100 100 100 100 100 100 100 100 100
100 100 100 100 100 100 100 100 100 100 100 100 100 100 93 100 100 100 84 96 59 98 100 97 99 100 100 100 100 100 100 100 100 100 99 100 100 100 100 100 100 100 100 100 100 100 100 100 100 100 100 100 100 96
100 100 100 100 100 100 100 100 100 100 100 100 100 100 100 100 98 100 95 96 88 100 100 93 100 100 100 100 100 100 100 100 100 100 100 100 100 100 100 100 100 100 100 100 100 100 100 100 100 100 100 99 93 92
100 100 100 100 100 100 100 100 100 100 100 100 100 100 100 100 100 100 100 100 94 100 96 99 100 100 100 100 100 100 100 100 100 100 100 100 100 100 100 100 100 100 100 100 100 100 100 100 100 100 100 100 99 92
100 100 100 100 100 100 100 100 100 100 100 100 100 100 100 100 100 100 100 100 100 100 100 100 100 100 100 100 100 100 100 100 100 100 100 100 100 100 100 100 100 100 100 100 100 100 100 100 100 100 100 100 55 5
100 100 100 100 100 100 100 100 100 100 100 100 100 100 100 100 100 100 100 100 100 100 100 100 100 100 100 100 100 100 100 100 100 100 100 100 100 100 100 100 100 100 100 100 100 100 100 100 100 88 28 5 5 5
100 100 100 100 100 100 100 100 100 100 100 100 100 100 100 100 100 100 100 100 100 100 100 100 100 100 100 100 100 100 100 100 100 100 100 100 100 100 100 100 100 100 100 100 100 100 99 20 5 5 5 28 12 5
100 100 100 100 100 100 100 100 100 100 100 100 100 100 100 100 100 100 100 100 98 100 100 100 100 100 100 100 100 100 100 100 100 100 100 100 100 100 100 100 100 100 100 100 100 27 5 5 5 7 86 57 5 5
100 100 100 100 100 100 100 100 100 100 100 94 100 100 100 100 100 100 100 100 100 100 100 100 100 100 100 100 100 100 100 100 100 100 100 100 100 100 100 100 100 100 96 22 5 5 5 6 81 60 53 5 7 67
100 100 100 100 100 100 98 100 100 100 99 100 100 100 100 100 100 100 100 100 100 100 100 100 100 100 100 100 99 100 100 100 100 100 100 100 100 100 100 100 100 100 57 61 24 10 76 79 79 100 60 5 5 5
100 100 100 100 100 100 100 100 100 100 100 100 100 100 100 100 100 100 91 100 100 100 100 100 100 100 100 100 100 100 100 100 100 99 100 100 100 100 100 100 100 100 35 52 40 58 76 84 79 90 21 5 5 6
100 100 100 100 100 100 100 100 100 100 100 100 100 100 100 100 100 100 100 100 100 100 100 100 93 100 100 100 100 100 100 100 100 100 100 100 100 100 100 100 42 5 5 58 75 46 77 63 34 5 60 84 59 51
100 100 100 100 100 100 100 100 100 95 100 100 100 100 100 100 100 100 100 100 100 100 100 100 100 100 100 100 100 100 100 100 100 100 100 100 100 98 50 33 5 5 40 59 51 84 87 65 12 8 11 63 65 78
100 100 100 100 100 100 100 100 100 100 100 100 100 100 100 100 100 100 100 100 100 100 100 100 100 100 100 100 100 100 100 100 100 100 100 100 71 38 65 25 6 14 30 54 72 79 53 5 5 10 51 21 13 53
100 100 100 100 100 100 100 100 100 100 100 100 100 100 100 100 100 100 100 100 100 100 100 100 100 100 100 100 100 100 100 100 100 100 100 100 100 94 95 72 58 16 12 52 20 13 5 61 45 22 5 10 61 66
100 100 100 100 100 100 100 100 100 100 100 100 100 100 100 100 100 100 100 100 100 100 100 100 100 100 100 100 100 100 100 100 100 100 100 100 100 100 100 65 34 12 59 99 74 18 19 91 39 22 46 35 32 21
100 100 100 100 100 100 100 100 100 100 100 100 100 100 100 100 100 100 100 100 100 100 100 100 100 100 100 100 100 100 100 100 100 100 100 100 99 99 98 97 86 93 57 58 5 5 5 71 8 8 13 83 62 81
100 100 100 100 100 100 100 100 100 100 100 100 100 100 100 100 100 100 100 100 100 100 100 100 100 100 100 100 100 100 100 100 100 100 65 62 45 74 90 83 5 32 54 64 5 5 19 81 73 79 74 76 94 100
100 100 100 100 100 100 100 100 100 100 100 100 100 100 100 100 100 100 100 100 100 100 100 100 100 100 100 100 100 100 100 100 100 100 100 100 92 76 22 24 17 8 5 5 5 6 32 65 94 99 82 70 95 99
57 92 90 100 100 100 100 92 99 100 100 100 100 100 100 100 100 100 100 100 100 100 100 100 100 100 99 100 100 100 100 100 100 100 100 99 93 80 46 90 82 6 7 50 64 55 10 65 100 100 92 76 36 49
100 99 85 92 95 81 100 77 61 78 98 94 99 99 98 74 43 97 99 100 100 100 100 100 100 100 100 100 100 100 100 100 100 100 100 100 94 93 87 90 90 87 96 89 80 26 5 17 70 93 98 97 70 54
99 100 100 100 100 98 97 92 39 8 5 17 99 100 100 63 96 100 100 100 97 95 100 100 100 100 100 100 100 100 100 100 97 98 98 98 100 100 99 84 37 37 42 65 80 76 63 40 60 68 77 88 44 12
96 99 90 96 100 79 89 100 99 33 96 100 84 100 99 99 99 98 97 93 100 98 96 100 100 100 98 95 95 98 100 99 99 99 99 93 93 94 100 99 92 91 92 86 94 100 100 100 100 99 96 65 12 46
81 97 89 99 96 81 91 99 92 85 91 96 98 97 100 91 100 100 100 98 100 100 98 76 76 79 78 90 93 86 94 98 96 100 100 100 100 100 100 100 100 100 98 94 93 98 100 100 100 100 100 100 97 95
92 82 78 67 68 99 98 95 97 97 95 94 87 77 97 98 100 100 98 96 91 95 100 100 98 74 100 100 100 100 100 100 100 100 100 100 100 100 100 95 96 98 99 96 100 100 100 100 100 100 100 100 100 100
92 99 89 74 73 75 75 90 89 98 90 92 84 88 93 97 100 100 98 100 99 100 100 100 100 100 100 100 100 100 100 100 100 100 100 100 100 100 100 99 100 100 100 100 99 100 100 100 100 100 100 100 100 100
100 100 100 100 100 100 100 100 100 100 100 100 100 100 100 100 100 100 100 100 100 100 100 100 100 100 100 100 100 100 100 100 100 100 100 100 100 100 100 100 100 100 100 100 100 100 100 100 100 100 100 100 100 100
100 100 100 97 100 100 100 100 100 100 100 100 100 100 100 100 100 100 100 100 100 100 100 100 100 100 100 100 100 100 100 100 100 100 100 100 100 100 100 100 100 100 100 100 100 100 100 100 100 100 100 100 100 100

GFSWCAN_prec_cloud_156.txt.gz
Cloud_Cover
5 94 39 83 95 95 99 100 100 100 78 86 49 21 56 13 48 7 36 84 100 100 53 6 5 5 5 5 24 1 72 98 93 100 100 100 76 5 7 5 7 18 55 80 95 100 100 100 100 100 93 95 15 5
14 45 92 100 60 8 5 71 96 100 100 100 100 100 100 100 97 48 99 65 99 100 26 6 75 75 31 25 19 46 48 99 97 100 60 98 89 43 62 83 5 28 5 5 97 100 100 100 100 48 49 17 5 5
55 98 45 8 87 100 100 100 100 100 100 100 100 100 100 100 100 100 100 100 100 100 100 100 90 86 79 41 54 38 13 100 100 100 100 99 100 100 52 75 100 100 48 6 100 100 98 100 97 96 74 59 5 35
9 8 90 100 100 100 100 100 100 100 100 100 100 100 100 100 100 100 100 100 100 100 100 35 77 30 94 67 60 24 100 100 100 100 100 100 89 11 100 100 100 100 99 80 52 99 100 100 100 69 35 44 63 87
96 100 100 100 100 100 100 100 100 100 100 100 100 100 100 100 100 100 100 100 100 100 100 72 43 3 4 4 99 84 100 100 100 100 100 100 95 100 100 98 100 100 100 100 100 100 100 100 66 55 97 83 100 100
100 100 100 100 100 100 100 100 100 100 100 100 100 100 100 100 100 100 100 100 100 100 100 100 100 3 0 69 100 100 100 91 99 100 100 100 100 100 98 95 100 100 100 89 100 100 100 100 100 100 100 100 100 100
100 100 100 100 100 100 100 100 100 100 100 100 100 100 100 100 100 100 100 100 100 100 100 100 100 100 19 92 93 56 31 100 99 100 84 79 95 100 100 98 100 100 100 100 100 99 100 100 100 100 100 100 100 100
100 100 100 100 100 100 100 100 100 100 100 100 100 100 100 100 100 100 100 100 100 100 100 100 100 100 100 97 100 100 100 100 92 34 91 100 100 100 95 100 100 100 100 100 100 100 100 100 100 100 100 100 100 100
100 100 100 100 100 100 100 100 100 100 100 100 100 100 100 100 100 100 100 100 100 80 92 96 99 100 100 100 100 100 70 89 100 100 100 93 82 86 100 100 52 99 100 100 100 100 100 100 100 100 100 100 100 100
100 100 100 100 100 100 100 100 100 100 100 100 100 100 100 100 100 100 100 100 100 100 100 75 90 100 99 100 100 92 100 61 96 40 100 99 16 100 100 100 100 100 100 100 100 100 100 100 100 100 100 100 100 90
100 100 100 100 100 100 100 100 100 100 100 100 100 100 100 100 100 100 100 99 100 100 89 91 67 100 74 67 74 74 94 95 96 100 100 84 100 100 100 100 100 100 100 100 100 100 100 100 100 100 100 98 62 54
100 100 100 100 100 100 100 100 100 100 100 100 100 100 100 100 100 100 99 100 38 100 100 100 100 100 100 100 100 100 100 98 100 100 100 100 100 100 100 100 100 100 100 100 100 100 100 100 98 100 100 75 18 39
100 100 100 100 100 100 100 100 100 100 100 100 100 100 100 100 100 100 100 100 100 100 100 100 100 100 100 100 100 100 100 100 100 100 99 100 100 100 100 100 100 100 100 100 100 100 100 100 100 98 49 42 14 65
100 100 100 100 100 100 100 100 100 100 100 100 100 100 100 100 100 100 100 100 92 99 100 100 100 100 90 100 100 100 100 100 100 100 100 100 100 100 100 100 100 100 100 100 100 81 100 95 53 5 5 5 7 71
100 100 100 100 100 100 100 100 100 100 100 100 100 100 100 100 100 100 100 100 100 100 100 100 99 100 100 100 100 85 99 96 100 100 100 92 100 95 99 100 100 100 100 98 99 100 74 34 30 80 9 5 5 13
100 100 100 100 100 100 100 100 100 100 100 100 100 100 100 100 100 100 100 100 100 100 100 100 100 100 100 100 100 100 100 100 100 87 74 88 100 100 100 100 100 100 86 97 100 44 70 72 41 81 9 5 5 5
100 100 100 100 100 100 100 100 100 100 100 100 100 100 100 100 100 100 100 100 100 100 100 100 100 100 100 100 100 100 100 100 100 100 86 100 100 100 100 100 100 98 100 100 100 95 72 64 47 16 21 95 5 27
100 100 100 100 100 100 100 100 100 100 100 100 100 100 100 100 100 100 100 100 100 100 100 100 100 100 100 100 100 99 100 100 100 100 100 100 100 100 100 100 100 100 100 100 90 62 70 57 6 10 11 59 86 98
100 100 100 100 100 100 100 100 100 100 100 100 100 100 100 100 100 100 100 100 100 100 100 100 100 100 100 100 100 100 99 100 100 100 100 100 100 100 100 100 100 100 100 100 67 46 26 5 5 5 50 76 83 100
100 100 100 100 100 100 100 100 100 100 100 100 100 100 100 100 100 100 100 100 100 100 100 97 100 100 100 100 100 100 100 100 99 100 100 100 100 100 100 100 100 100 100 100 72 49 51 52 12 8 58 68 83 100
100 100 100 100 100 100 100 100 100 100 100 100 100 100 100 100 100 100 100 100 100 100 100 100 100 100 100 100 100 100 100 100 100 100 100 100 100 100 100 100 100 100 100 100 100 88 75 29 35 55 58 58 27 7
100 100 100 100 100 100 100 100 100 100 100 100 100 100 100 100 100 100 100 100 100 100 100 100 100 100 100 100 100 100 100 100 100 100 100 100 100 100 100 100 100 100 100 100 100 100 100 94 58 47 32 57 27 55
100 100 100 100 98 100 100 100 100 100 100 100 100 100 100 100 100 100 100 100 100 100 100 100 100 100 100 100 100 100 100 100 100 100 100 100 100 100 100 100 100 100 100 100 100 100 100 100 74 38 51 73 85 98
100 100 100 100 100 100 100 100 100 100 100 100 100 100 100 100 100 100 100 100 100 100 100 100 100 100 100 100 100 100 100 100 100 100 100 100 100 100 100 100 100 100 100 100 100 100 100 100 87 64 65 87 67 66
100 100 100 100 100 100 100 100 100 100 100 100 100 100 100 100 100 92 98 100 100 100 100 100 100 100 95 98 100 100 100 100 100 100 100 100 100 100 100 100 100 100 100 100 100 100 100 99 90 94 81 64 42 71
82 94 98 100 100 100 100 100 100 100 100 100 100 100 100 100 98 100 100 100 100 100 100 100 100 100 100 99 100 100 100 100 100 100 100 100 100 100 100 100 100 100 100 100 100 100 99 68 77 97 98 62 55 88
76 86 92 100 100 100 100 100 100 100 97 89 79 78 46 93 100 100 100 100 99 96 100 100 100 100 99 100 100 100 100 100 100 100 100 100 100 100 100 100 100 100 100 100 97 65 40 67 94 100 79 96 86 92
100 99 60 96 82 41 60 90 93 92 94 63 40 82 69 84 86 95 100 100 99 86 97 99 90 89 86 92 98 86 96 99 100 100 100 97 89 77 84 90 86 95 100 100 100 100 100 100 100 100 89 80 83 99
98 93 80 93 83 67 88 96 100 99 100 70 59 99 100 94 100 100 100 98 98 89 98 99 85 83 75 57 71 87 96 72 61 78 93 80 89 80 88 87 93 90 88 100 100 100 100 100 100 100 98 100 100 100
91 95 78 83 74 84 94 96 100 98 100 92 52 72 92 95 100 100 100 99 100 94 96 96 93 70 95 90 84 80 75 70 80 84 90 77 74 81 100 89 84 90 100 100 100 100 100 100 100 100 100 100 100 100
100 99 77 74 80 99 100 100 100 100 100 98 87 77 61 82 98 100 98 91 87 83 84 79 69 72 64 68 85 78 71 51 66 74 80 78 78 91 94 99 100 100 100 100 100 100 100 100 100 100 100 100 100 100
90 95 82 74 77 97 94 96 82 74 82 75 85 85 100 93 93 93 81 72 83 90 88 74 76 72 81 76 89 94 97 92 70 88 96 72 75 75 100 100 100 100 100 100 100 100 100 100 100 100 100 100 100 100
100 100 100 100 99 88 93 96 100 100 100 100 98 93 93 81 88 99 100 100 95 100 99 100 100 100 100 95 94 96 93 92 92 80 80 88 100 100 100 100 100 100 100 100 100 100 100 100 100 100 100 100 100 100

GFSWCAN_prec_cloud_162.txt.gz
Cloud_Cover
25 5 5 5 5 35 26 68 75 100 100 89 100 100 100 100 100 100 100 100 100 100 97 99 100 68 92 100 100 100 100 89 96 100 100 100 98 100 89 83 100 100 95 99 78 97 79 3 3 8 1 0 12 32
5 5 5 5 11 5 5 5 3 5 5 88 95 96 100 100 24 21 6 8 88 81 55 48 19 8 100 100 100 100 98 100 99 92 54 100 100 100 100 87 100 74 84 95 82 99 73 4 5 9 26 5 100 100
5 4 46 6 74 100 100 56 25 15 14 12 32 61 70 92 85 72 65 48 92 89 71 53 89 67 5 5 19 74 96 7 85 58 42 97 14 100 100 82 100 91 71 24 61 66 51 99 20 70 91 100 100 100
5 30 90 100 90 75 69 61 39 33 34 48 59 46 32 96 100 100 100 100 100 100 100 78 19 25 5 5 48 20 66 100 73 53 98 100 100 48 48 98 97 88 92 89 39 42 17 5 30 63 76 100 92 99
100 100 49 86 100 92 99 100 100 100 100 100 100 100 100 100 100 100 100 100 100 100 100 84 80 43 94 58 10 5 10 97 100 91 98 98 100 100 96 86 100 93 100 97 100 100 5 64 86 100 100 100 99 78
100 94 100 93 100 100 100 100 100 100 100 100 100 100 100 100 100 100 100 100 100 100 100 100 97 100 90 78 48 59 62 89 100 100 100 100 100 100 100 100 100 100 100 99 38 88 80 30 97 100 99 92 99 100
100 100 100 100 100 100 100 100 100 100 100 100 100 100 100 100 100 100 100 100 100 100 100 100 100 100 100 100 82 93 93 100 100 100 88 100 100 100 100 86 100 100 100 94 100 100 76 100 100 100 100 100 100 100
100 100 100 100 100 100 100 100 100 100 100 100 100 100 100 100 100 100 100 100 100 100 100 100 100 100 100 100 100 100 100 100 100 90 94 100 100 100 100 100 98 98 100 100 100 100 100 100 100 100 100 100 100 100
100 100 100 100 100 100 100 100 100 100 100 100 100 100 100 100 100 100 100 100 100 100 100 100 100 100 100 97 100 100 100 100 79 100 99 100 100 100 100 99 100 100 100 100 100 100 100 100 100 100 100 100 100 100
100 100 100 100 100 100 100 100 100 100 100 100 100 100 100 100 100 100 100 100 100 100 100 100 100 100 100 58 94 34 50 99 99 99 95 100 100 100 100 100 100 100 100 100 100 100 100 100 100 100 100 100 100 100
100 100 100 100 100 100 100 100 100 100 100 100 100 100 100 100 100 100 100 100 100 100 100 100 100 100 100 100 88 96 99 100 96 66 93 99 100 100 100 97 14 46 89 100 100 100 100 100 100 100 100 100 100 100
100 100 100 100 100 100 100 100 100 100 100 100 100 100 100 100 100 100 100 100 100 100 100 100 73 100 96 100 100 89 94 90 90 88 98 100 100 56 8 5 5 71 96 100 100 100 100 100 100 100 100 100 95 62
100 100 100 100 100 100 100 100 100 100 100 100 100 100 100 99 97 100 100 100 100 100 53 82 95 100 100 100 100 100 97 61 67 100 100 53 14 29 69 82 96 99 100 100 100 100 100 100 100 100 90 92 55 55
100 100 100 100 100 100 100 100 100 100 100 100 100 86 81 100 99 100 100 100 100 96 96 18 92 97 100 94 99 100 100 100 100 100 100 100 100 96 100 100 100 100 100 100 100 100 100 100 100 86 75 12 52 76
100 100 100 100 100 100 100 100 100 100 100 100 100 100 100 91 92 100 100 91 93 100 83 100 100 100 100 100 100 100 100 98 100 95 87 98 100 100 100 100 100 100 96 100 100 100 100 100 86 87 83 42 63 38
99 100 100 100 100 100 100 100 100 100 100 100 100 100 100 100 100 100 100 100 100 100 100 100 100 100 98 100 98 87 100 49 91 98 100 100 100 100 100 100 100 100 100 100 100 100 100 100 92 78 89 92 83 5
90 85 99 100 100 100 100 100 100 100 100 100 100 100 100 100 100 100 100 100 100 100 100 100 100 100 98 100 100 100 97 100 100 92 100 100 100 100 100 100 100 100 100 100 100 100 100 100 99 97 97 100 92 36
83 58 76 100 100 100 100 100 100 100 100 100 100 100 100 100 100 100 100 100 100 100 100 100 100 100 100 100 100 100 100 100 100 100 100 100 100 100 100 100 100 100 100 100 100 97 94 84 100 76 92 96 95 98
92 98 100 100 100 100 100 100 100 100 100 100 100 100 100 100 100 100 100 100 100 100 100 100 100 100 100 100 100 100 100 100 100 100 100 100 100 100 100 100 100 100 100 100 100 100 100 100 100 97 17 33 5 27
100 100 100 100 100 100 100 100 100 100 100 100 100 100 100 100 100 100 100 100 100 100 100 100 100 100 100 100 100 100 100 100 100 100 100 100 100 100 100 100 100 100 100 100 100 100 100 100 100 100 100 100 90 93
74 55 96 100 100 100 100 100 100 100 100 100 100 100 100 100 100 100 100 100 100 100 100 100 100 100 100 100 100 100 100 100 100 100 100 100 100 100 100 100 100 100 100 100 100 100 100 100 100 100 100 100 100 100
100 99 100 99 100 96 94 96 100 100 100 100 100 100 100 100 100 100 100 100 100 100 100 100 100 100 100 100 100 100 100 100 100 100 100 100 100 100 100 100 100 100 100 100 100 100 100 100 100 100 100 100 100 100
100 100 100 100 100 99 100 98 95 98 100 100 100 100 100 100 99 100 100 100 100 100 100 100 100 100 100 100 100 100 100 100 100 100 100 100 100 100 100 100 100 100 100 100 100 100 100 100 100 100 100 100 100 100
100 100 100 100 100 99 100 100 100 98 100 96 100 98 98 100 100 100 100 100 100 100 100 100 100 100 100 96 89 95 100 100 100 100 100 100 100 100 100 100 100 100 100 100 100 100 100 100 100 100 100 100 100 100
99 100 100 100 100 100 100 100 100 100 100 100 97 100 100 99 100 100 100 100 100 100 99 99 100 100 100 100 100 97 92 87 100 100 100 100 100 100 100 100 100 100 100 100 100 100 100 100 100 100 100 100 100 100
86 100 88 100 100 100 100 100 100 100 100 99 99 98 82 94 100 100 100 100 100 100 100 100 100 98 89 92 96 96 92 98 100 100 100 100 100 100 100 100 100 100 100 100 100 100 100 100 100 100 100 100 100 100
69 99 100 100 100 100 100 100 100 100 100 100 100 99 98 100 100 100 100 100 100 100 100 100 100 97 97 97 88 91 99 93 99 98 100 100 100 100 100 100 100 100 100 100 100 100 100 100 100 100 100 100 100 100
94 88 100 100 100 100 100 100 100 100 100 100 100 90 88 98 100 100 100 100 100 100 100 100 100 100 97 95 98 90 81 72 95 70 86 86 90 100 100 100 100 100 100 100 100 100 100 100 100 88 87 100 100 100
96 93 86 62 94 100 100 100 100 100 100 100 100 100 100 100 100 100 100 100 100 100 100 100 100 93 100 97 97 100 98 84 88 82 91 89 100 100 100 99 100 98 100 79 84 90 90 85 97 100 100 100 100 100
96 96 94 78 29 98 100 100 100 100 100 97 95 92 100 100 100 100 100 100 100 100 100 100 100 100 100 100 99 100 96 98 99 100 98 94 100 100 100 100 100 100 100 100 99 98 100 100 100 100 100 100 100 100
98 99 98 98 100 100 100 100 100 100 100 91 98 94 100 100 100 100 100 100 100 100 100 100 100 100 100 100 100 100 92 93 100 100 99 100 100 100 100 100 100 100 100 100 100 99 100 100 100 100 100 100 100 100
100 100 99 98 100 100 100 100 100 100 100 100 100 100 100 100 100 100 100 100 100 100 99 100 100 100 100 100 100 100 100 100 100 100 100 100 100 100 100 100 100 100 100 100 100 100 100 100 100 100 100 100 100 100
100 100 100 100 100 100 100 100 100 100 100 100 100 100 100 100 100 100 100 100 100 100 100 100 100 100 100 100 100 100 100 100 100 98 100 99 100 97 99 100 100 100 100 100 100 100 100 100 100 100 100 100 100 100

GFSWCAN_prec_cloud_165.txt.gz
Cloud_Cover
12 6 5 6 5 5 5 5 5 97 100 100 100 100 100 100 100 100 100 100 100 100 86 92 99 98 70 78 100 100 100 99 100 100 100 100 100 100 100 77 59 100 100 100 91 100 93 83 100 100 50 94 50 4
93 5 5 6 5 5 5 10 80 96 100 100 99 100 100 100 100 100 100 100 100 84 94 24 100 100 100 100 100 100 88 98 100 100 95 99 100 100 95 99 100 98 76 100 100 100 99 93 96 66 80 86 9 9
40 5 5 5 2 0 5 5 5 5 21 71 5 11 5 15 35 14 77 79 64 76 35 66 24 100 100 99 100 100 99 97 96 100 18 26 76 22 53 92 100 100 100 100 100 65 99 100 48 66 5 5 76 98
36 5 4 5 11 34 30 20 5 5 5 32 37 59 98 100 100 94 91 90 75 89 88 7 3 3 58 75 63 100 79 99 94 100 95 34 99 90 98 76 100 100 100 100 88 84 100 95 72 97 56 56 100 100
75 5 38 67 53 78 76 59 24 5 5 6 5 7 24 90 100 100 100 100 90 72 100 100 77 75 30 6 97 100 100 100 57 98 83 97 100 100 96 98 23 71 20 52 99 100 100 100 99 5 86 100 100 100
77 95 84 95 64 10 66 100 100 100 100 100 99 100 95 100 87 100 100 91 100 100 100 99 84 79 65 100 95 100 100 100 100 100 99 100 99 100 98 83 91 100 100 100 100 88 100 100 100 100 100 100 100 100
99 97 91 56 53 95 100 100 100 100 100 100 100 100 100 100 100 100 98 100 100 100 100 100 100 94 86 99 100 100 100 98 96 99 100 100 100 100 90 94 100 100 97 100 100 76 86 62 86 98 99 100 100 100
21 41 100 100 100 100 100 100 100 100 100 100 100 100 100 100 100 100 100 100 100 100 100 100 100 100 100 100 100 100 100 94 100 98 100 100 100 97 80 96 97 99 100 100 100 100 95 100 100 100 100 100 100 100
83 100 100 100 100 100 100 100 100 100 100 100 100 100 100 100 100 100 100 100 100 100 100 100 100 100 100 100 100 99 99 91 68 90 97 80 60 87 87 100 100 100 100 100 100 100 100 100 100 100 100 100 100 100
100 100 100 100 100 100 100 100 100 100 100 100 100 100 100 100 100 100 100 100 100 100 100 100 100 100 100 100 100 96 76 100 100 37 100 98 90 100 100 100 100 100 100 100 100 100 100 100 100 100 100 100 100 100
90 100 100 100 100 100 100 100 100 100 100 100 100 100 100 100 100 100 100 100 100 100 100 100 100 100 94 100 89 96 91 98 100 97 87 100 100 100 90 100 100 100 100 90 100 100 100 100 100 100 100 100 100 100
100 100 100 100 100 100 100 100 100 100 100 100 100 100 100 100 100 100 100 100 100 100 99 100 100 100 100 100 98 80 96 100 100 100 100 100 97 34 5 13 9 35 91 85 98 100 100 100 100 100 100 100 100 100
100 100 100 100 100 100 100 100 100 100 100 100 100 100 100 100 100 100 100 100 100 100 100 100 100 98 77 96 100 99 100 100 100 100 100 60 5 5 5 5 5 26 100 100 100 100 100 100 100 100 100 100 100 100
100 100 100 100 100 100 100 100 100 100 100 100 100 100 100 100 100 100 100 100 100 100 100 100 98 98 100 100 100 100 83 79 100 100 79 59 50 84 100 100 98 94 100 100 100 100 100 100 100 100 100 97 14 41
100 100 100 100 100 100 100 100 100 100 100 100 100 100 100 100 100 100 100 100 56 12 10 90 96 99 100 98 100 100 100 100 100 100 100 100 99 100 100 100 100 100 100 100 100 100 100 100 100 96 94 48 64 94
99 100 100 100 100 100 100 100 98 96 100 100 100 98 97 100 100 95 94 100 93 14 89 82 76 88 100 100 86 100 100 100 100 100 100 100 100 100 100 100 100 100 100 100 100 100 100 100 99 100 80 96 88 71
100 95 100 100 100 100 100 100 100 100 100 100 100 100 100 100 100 100 100 99 86 70 91 98 49 90 90 93 95 93 93 100 100 100 100 100 100 100 100 100 100 100 100 100 100 100 100 100 100 100 84 98 95 86
97 84 92 98 100 100 100 100 100 100 100 100 100 100 100 100 100 100 100 100 100 100 99 97 92 100 100 100 99 100 99 100 100 100 100 95 100 100 100 100 100 100 100 100 100 100 100 100 100 100 98 94 95 98
65 50 32 63 93 99 100 100 100 100 100 100 100 100 100 100 100 100 100 100 100 100 100 100 100 100 100 99 99 100 100 100 100 100 100 98 98 100 100 100 100 100 100 100 100 100 100 100 100 100 100 98 100 100
65 73 79 95 98 100 100 100 100 100 100 100 100 100 100 100 100 100 100 100 100 100 100 100 100 100 100 100 100 100 100 100 100 100 100 100 100 100 100 100 100 100 100 100 100 100 100 100 100 100 100 100 100 100
98 70 100 97 100 100 100 100 100 100 100 100 100 100 100 100 100 100 100 100 100 100 100 100 100 100 100 100 100 100 100 100 100 100 100 100 100 100 100 100 100 100 100 100 100 100 100 100 100 100 100 100 100 100
100 100 100 100 99 100 100 100 100 98 100 100 100 100 100 100 100 100 100 100 100 100 100 100 100 100 100 100 100 100 96 100 98 100 100 100 100 100 100 100 100 100 100 100 100 100 100 100 100 100 100 100 100 100
100 100 100 100 100 63 95 89 96 93 96 100 100 100 100 100 96 97 99 99 100 100 100 100 100 100 100 100 100 100 100 100 100 100 100 100 100 100 100 100 100 100 100 100 100 100 100 100 100 100 100 100 100 100
100 100 100 100 95 99 60 81 81 97 85 93 92 99 100 100 100 100 100 100 100 100 100 100 100 100 100 100 98 100 100 100 100 100 100 100 100 100 100 100 100 100 100 100 100 100 100 100 100 100 100 100 100 100
98 100 100 100 100 100 81 76 69 57 100 100 100 100 100 100 100 100 100 100 100 100 100 96 91 94 100 100 100 100 100 100 100 100 100 100 100 100 100 100 100 100 100 100 100 100 100 100 100 100 100 100 100 100
48 97 88 96 100 94 100 98 91 90 99 100 100 100 100 100 97 96 97 100 100 100 100 100 100 100 100 100 100 100 100 100 100 100 100 100 100 100 100 100 100 100 100 100 100 100 100 100 100 100 100 100 100 100
54 96 100 81 95 98 100 100 100 100 100 100 100 100 82 82 75 86 100 100 100 100 100 100 100 100 100 100 100 100 100 100 100 100 100 100 100 100 100 100 100 99 99 100 100 100 100 97 98 100 100 99 100 100
100 99 97 100 88 94 100 100 100 100 100 100 100 60 46 98 100 100 100 100 100 100 100 100 100 100 100 100 100 100 100 99 94 84 100 95 100 100 100 100 81 61 84 100 100 100 100 100 92 100 100 100 100 99
100 100 100 73 91 100 100 100 100 100 100 100 100 100 100 100 100 100 100 100 100 100 100 100 100 100 100 100 100 100 100 99 100 100 100 100 100 100 100 100 100 100 100 100 93 97 100 100 100 100 100 100 100 100
100 100 100 91 98 100 100 100 100 100 100 100 100 100 100 100 100 100 100 100 100 100 100 100 100 100 100 100 100 100 100 100 100 100 100 100 100 100 100 100 100 99 100 100 100 100 100 87 83 97 98 100 100 100
100 100 100 100 100 100 100 100 100 100 100 100 100 100 100 100 100 100 100 100 100 100 100 100 100 100 100 100 100 100 100 99 100 100 100 100 100 100 100 100 100 100 100 100 100 100 100 100 100 100 100 100 100 100
100 100 100 100 100 100 100 100 100 100 100 100 100 100 100 100 100 100 100 100 100 100 96 100 100 100 100 100 100 100 100 100 100 100 100 100 100 100 100 100 100 99 100 100 100 100 100 100 100 100 100 100 100 100
100 100 100 100 100 100 100 100 100 100 100 100 100 100 100 100 100 100 100 100 100 100 100 100 100 100 100 100 100 100 100 100 100 100 100 100 100 94 99 100 100 100 100 100 100 100 96 100 100 100 100 100 100 100

GFSWCAN_prec_cloud_168.txt.gz
Cloud_Cover
12 91 5 5 5 5 5 5 5 5 4 8 9 35 92 94 92 100 100 100 100 100 100 100 100 100 100 50 100 100 100 100 90 100 100 96 35 29 35 19 82 61 100 100 92 100 77 97 89 100 99 100 100 100
100 100 7 5 5 5 7 5 5 5 5 77 100 100 100 100 100 100 100 100 100 100 100 100 100 81 68 100 100 100 100 100 100 100 55 96 98 14 7 5 67 4 5 86 100 100 98 94 41 80 82 100 96 39
100 98 5 5 5 5 5 5 5 5 5 32 100 100 100 97 65 100 100 100 100 100 100 99 91 100 100 83 98 84 81 100 100 100 80 71 81 100 50 7 100 8 93 91 100 73 94 78 100 100 76 100 0 57
6 5 5 5 3 2 2 21 5 4 5 6 100 100 84 90 99 92 100 100 100 97 70 77 58 13 69 100 100 100 98 60 32 51 95 51 28 52 29 4 17 62 93 5 3 31 99 69 19 72 96 88 98 100
74 49 8 2 8 8 36 13 18 5 5 40 67 30 5 5 4 4 59 63 81 44 95 55 13 12 32 55 6 4 6 67 100 13 15 5 26 38 2 8 5 13 16 6 9 100 100 96 93 100 100 100 94 100
100 100 11 7 40 14 10 5 5 5 5 5 13 44 54 79 100 100 99 79 80 87 100 100 100 100 100 85 18 5 5 5 5 9 45 5 94 99 80 17 5 5 5 61 60 92 13 97 100 100 53 41 100 100
95 80 73 48 63 39 100 100 100 100 100 100 100 99 52 68 54 100 100 100 100 100 100 100 99 52 90 100 100 100 58 96 12 31 10 79 78 98 38 60 99 8 5 18 59 40 92 91 100 92 100 100 100 94
92 43 15 42 35 58 78 99 100 100 100 100 100 100 100 100 98 95 100 100 97 100 94 100 100 100 85 100 100 98 100 100 100 87 34 42 43 70 94 85 15 92 100 100 100 90 100 67 100 100 100 98 72 99
8 72 89 100 100 100 100 100 100 100 100 100 100 100 100 100 100 100 100 100 100 100 100 100 100 100 100 100 100 100 91 100 100 98 99 85 38 51 100 100 100 100 100 100 100 100 100 100 100 100 100 98 100 100
74 100 100 100 100 100 100 100 100 100 100 100 100 100 100 100 100 100 100 100 100 100 100 100 100 100 100 100 100 100 100 82 99 40 74 91 100 85 96 100 96 49 99 100 100 100 100 100 100 100 100 100 100 100
100 100 100 100 100 100 100 100 100 100 100 100 100 100 100 100 100 100 100 100 100 100 100 96 100 100 100 100 100 44 94 91 95 96 98 100 100 100 100 100 80 100 80 87 87 100 100 100 100 100 100 100 100 100
100 98 100 100 100 100 100 100 100 100 100 100 100 100 100 100 100 100 100 100 100 100 100 76 100 100 100 86 100 100 99 85 100 100 96 98 96 32 68 83 98 62 84 100 100 100 100 100 100 100 100 100 100 100
100 100 100 100 100 100 100 100 100 100 100 100 100 100 100 100 100 100 100 100 100 100 100 96 100 100 100 100 100 98 88 100 100 100 99 100 70 51 50 5 93 14 87 96 97 100 100 100 100 100 100 100 100 100
90 100 100 100 100 100 100 100 100 100 100 100 100 100 100 100 100 100 100 100 99 98 43 36 79 62 100 100 100 100 100 100 100 100 44 88 65 54 32 32 71 90 100 100 100 100 100 100 100 100 100 100 100 99
100 100 100 100 100 100 100 100 100 100 100 100 100 100 100 97 100 100 100 100 100 78 6 36 54 100 100 100 100 100 100 100 100 100 100 100 100 86 98 62 100 100 100 100 100 100 100 100 100 100 100 98 82 64
100 100 100 100 100 100 100 100 100 100 98 99 100 100 92 48 100 97 77 91 100 88 88 63 100 86 100 100 100 100 100 100 100 100 100 100 100 99 99 100 100 100 100 100 100 100 100 100 100 100 100 67 35 5
100 100 100 100 100 100 100 100 100 100 100 100 100 100 100 94 100 100 98 75 8 69 85 32 75 100 100 100 100 100 100 100 100 100 100 100 100 100 100 100 100 100 100 100 100 100 100 100 100 100 100 100 91 56
100 100 100 100 100 100 100 100 100 100 100 100 100 100 100 100 100 100 100 100 95 22 69 80 91 100 100 100 100 100 100 100 100 100 100 100 100 99 98 90 99 99 100 95 100 100 100 100 100 100 100 97 98 99
70 100 97 100 100 100 100 100 100 100 100 100 100 100 100 100 100 100 100 100 100 100 100 100 100 100 100 100 100 100 100 100 100 100 100 100 100 95 96 100 100 100 97 100 100 100 100 100 100 100 100 95 96 97
5 66 99 99 100 100 100 100 100 100 100 100 100 100 100 100 100 100 100 100 100 100 100 100 100 100 100 100 100 100 100 100 100 100 100 97 97 98 99 100 100 100 99 99 100 100 100 100 100 100 100 100 100 100
62 32 60 55 100 100 100 100 100 100 100 100 100 100 100 100 100 100 100 100 100 100 100 100 100 100 100 100 100 100 100 100 100 100 100 100 100 100 100 100 100 100 100 100 100 100 100 100 100 100 100 100 100 100
96 84 92 86 93 100 100 100 100 100 100 100 100 100 100 100 100 100 100 100 100 100 100 100 100 100 100 100 100 100 100 100 100 100 100 98 100 100 100 100 100 100 100 100 100 100 100 98 96 100 100 100 100 100
77 85 74 92 99 80 99 100 100 100 100 100 100 100 100 100 100 100 100 100 100 100 100 100 100 100 100 100 100 100 100 100 100 100 100 100 100 100 100 100 100 100 100 100 100 100 100 100 100 100 100 100 100 100
97 99 98 100 100 100 91 98 79 100 76 95 98 100 100 100 100 100 100 100 100 100 100 100 100 100 100 100 100 100 100 100 100 100 100 100 100 100 100 100 100 100 100 100 100 100 100 100 100 100 100 100 100 100
97 100 95 100 100 100 97 74 56 60 57 76 100 98 99 96 98 92 100 100 100 100 100 99 100 100 100 100 100 100 100 100 100 100 100 100 100 100 100 100 100 100 100 100 100 100 100 100 100 100 100 100 100 100
83 100 90 99 95 96 100 97 99 94 70 63 90 100 92 92 90 100 100 100 100 100 100 100 100 100 100 100 100 100 100 98 100 97 100 100 100 100 100 100 100 100 100 100 100 100 100 100 100 100 100 100 100 100
82 97 100 100 97 95 98 100 100 100 100 100 100 100 100 93 100 95 100 100 100 100 100 100 100 100 100 100 100 100 100 100 99 100 100 100 100 100 100 100 100 92 96 99 100 100 100 100 100 100 100 100 99 99
97 100 100 100 100 98 100 100 100 100 100 100 100 97 86 97 100 100 100 100 100 100 100 100 100 100 100 100 100 100 100 100 98 100 100 100 100 100 100 100 94 64 99 100 100 100 100 100 100 100 100 100 100 100
100 100 100 96 82 100 100 100 100 100 100 100 100 100 100 100 100 100 100 100 100 100 100 100 100 100 100 100 100 100 100 97 100 100 100 100 100 95 100 100 100 100 100 100 96 99 100 100 100 100 100 97 100 100
99 93 100 99 92 99 100 98 100 100 100 100 100 100 100 100 100 100 100 100 100 100 100 100 100 100 100 100 100 99 100 100 100 100 100 98 100 98 100 100 100 100 100 100 100 100 100 100 86 75 86 93 100 100
100 100 100 99 100 100 100 96 100 99 100 100 100 100 100 100 100 100 100 100 100 100 100 100 100 100 100 100 100 100 100 100 100 100 100 100 100 100 100 100 100 100 100 100 100 100 100 100 100 100 100 97 99 98
100 100 100 100 100 93 77 100 100 100 100 100 100 100 100 100 100 100 100 100 100 100 100 100 100 100 100 100 100 96 95 100 100 100 100 100 100 99 100 100 100 100 100 100 100 100 100 98 100 100 100 94 100 100
99 99 100 100 100 100 96 98 100 100 100 100 100 100 100 100 100 100 100 100 100 100 100 100 100 100 100 100 100 100 100 98 92 97 100 73 59 46 91 93 100 100 99 100 100 100 100 89 98 100 100 99 99 98

GFSWCAN_prec_cloud_171.txt.gz
Cloud_Cover
5 12 96 100 68 5 5 5 5 5 5 5 45 87 84 30 20 81 78 100 100 100 73 80 100 100 100 100 100 100 100 100 100 100 71 66 9 0 3 5 47 54 96 100 100 100 69 86 88 88 93 100 100 91
26 85 100 99 65 31 5 5 5 5 5 38 27 9 99 94 97 76 100 100 100 100 67 100 100 100 100 100 100 100 100 96 100 100 100 100 5 5 4 6 78 9 32 86 100 56 28 88 100 100 100 34 90 100
8 100 100 100 46 14 5 9 5 5 3 5 41 100 100 100 100 96 100 100 100 100 100 100 100 100 100 100 100 100 100 100 100 100 100 98 99 64 5 5 96 33 99 37 36 5 43 100 100 86 100 100 100 100
40 75 100 30 5 5 5 3 5 4 5 14 100 100 100 100 100 100 100 100 100 100 64 61 25 93 100 100 99 99 100 100 100 100 100 100 79 11 3 0 4 61 70 10 5 7 6 100 100 61 19 13 100 100
30 31 6 55 5 5 1 0 64 65 21 55 12 96 100 100 100 97 100 100 100 100 87 6 34 100 95 89 91 68 83 96 100 100 100 100 43 5 0 1 5 5 5 4 5 15 9 18 41 86 42 18 93 100
6 5 5 7 1 30 62 63 19 37 72 55 57 56 54 12 5 5 62 8 31 62 29 62 68 100 99 56 21 5 5 3 75 86 100 71 79 81 5 12 5 4 0 0 2 5 33 6 96 100 100 100 100 89
86 54 82 43 90 93 82 88 95 80 67 94 59 98 98 23 17 71 57 100 100 100 100 92 100 100 99 86 87 69 86 48 32 31 33 23 5 15 10 26 98 76 72 14 5 5 24 94 100 100 100 89 82 100
54 97 95 78 80 52 97 100 100 100 100 100 100 100 100 100 92 85 59 71 100 100 98 100 90 99 28 96 100 100 100 52 8 11 7 5 4 20 70 23 100 100 7 3 5 26 87 78 100 100 90 84 100 100
76 86 65 17 93 100 100 100 100 100 100 100 100 100 100 100 100 100 99 100 100 100 93 95 78 88 98 49 91 100 100 80 65 70 80 12 12 84 53 99 48 17 37 88 98 100 100 82 100 100 93 100 100 100
69 71 98 100 100 100 100 100 100 100 100 100 100 100 100 100 93 91 100 100 100 100 100 100 99 86 100 96 100 100 100 90 87 25 18 74 5 74 49 92 100 100 100 100 100 71 80 100 100 100 100 100 99 100
63 100 100 100 100 100 100 100 100 100 100 100 100 100 100 86 100 100 100 100 100 100 100 100 87 100 83 84 94 100 84 92 91 100 64 34 43 92 87 100 100 93 44 56 86 100 100 100 97 100 100 100 100 100
100 100 100 100 100 100 100 100 100 100 100 100 100 100 100 100 100 100 100 100 100 100 100 94 93 97 100 96 100 100 100 100 100 100 100 98 74 92 61 45 36 25 99 100 100 100 100 100 100 100 100 100 100 100
100 100 100 100 100 100 100 100 100 100 100 100 100 100 100 100 100 100 100 100 100 100 100 94 30 68 89 100 100 100 100 100 100 100 100 100 93 100 100 100 95 96 68 96 100 100 100 79 100 100 100 100 100 100
100 94 100 100 100 100 100 100 100 100 100 100 100 100 100 100 100 100 98 100 100 100 100 100 31 16 78 100 100 100 100 100 100 83 40 99 100 100 100 86 100 100 100 100 100 100 100 100 100 100 100 100 100 91
100 100 100 100 100 100 100 100 100 100 100 100 100 100 100 100 100 100 100 100 100 100 100 41 33 91 88 99 100 97 97 100 100 100 100 100 99 100 58 100 100 100 100 100 100 100 100 100 100 100 89 88 95 67
100 100 100 100 100 100 100 100 100 100 100 100 100 100 100 100 100 100 87 100 100 100 100 90 98 63 100 100 100 100 100 100 100 100 100 100 100 100 100 99 100 100 100 100 100 100 100 100 100 100 90 98 100 95
94 100 100 100 100 100 100 100 100 100 100 100 100 100 100 100 100 100 97 67 100 100 100 100 83 99 98 100 100 100 100 100 100 100 100 100 89 100 100 95 97 100 100 100 100 100 100 100 98 100 91 100 75 80
100 94 100 100 100 100 100 100 98 83 100 100 100 100 100 100 100 100 100 100 82 95 83 100 100 100 100 100 100 100 100 100 100 100 100 100 99 100 100 100 78 100 94 96 98 99 100 97 100 100 100 100 100 100
92 86 100 100 100 100 100 100 100 100 100 100 100 100 100 100 100 100 100 100 100 99 100 82 100 100 100 100 95 100 100 100 99 98 100 99 92 100 100 100 100 99 95 94 98 97 91 100 100 100 100 94 96 98
21 87 100 100 100 100 100 100 100 100 100 100 100 100 100 100 100 100 100 100 100 100 100 100 100 100 100 100 100 100 100 100 100 100 100 100 96 95 98 99 100 100 100 77 93 93 100 100 100 100 94 100 100 100
5 60 81 96 100 100 100 100 100 100 100 100 100 100 100 100 100 100 100 100 97 99 100 100 100 100 100 100 100 100 100 100 100 100 100 100 100 100 100 100 100 100 100 100 100 100 100 100 100 100 100 100 100 100
90 78 69 63 100 97 92 100 100 100 100 100 100 100 100 100 100 100 99 97 92 93 98 100 100 100 100 100 100 100 100 100 100 100 100 100 100 100 100 100 100 100 100 100 100 100 100 100 100 100 100 100 100 100
67 52 92 86 80 80 81 100 100 100 100 100 100 100 100 100 100 100 100 100 100 100 100 100 100 100 100 100 100 100 100 100 100 100 100 100 100 100 100 100 100 100 100 100 97 100 100 100 100 100 100 100 100 100
83 88 85 85 75 96 90 93 100 100 100 100 100 100 100 100 99 100 100 100 100 100 100 100 100 100 100 100 100 100 100 100 100 100 100 100 100 100 100 100 100 100 100 100 100 100 100 100 100 100 100 100 100 100
68 93 75 99 91 95 100 100 100 100 96 100 100 100 100 100 100 100 100 100 100 100 100 100 100 100 100 100 100 100 100 100 100 100 100 100 100 100 100 100 100 100 100 100 100 100 100 100 100 100 100 100 100 100
81 100 100 100 100 100 98 90 93 99 100 100 76 72 83 98 100 100 100 100 100 100 100 100 100 100 100 100 100 100 100 100 100 100 100 100 100 100 100 100 100 100 100 100 100 100 100 100 100 100 100 100 100 100
84 100 100 100 100 100 93 98 99 86 100 94 92 98 95 97 100 100 100 100 100 100 100 100 100 100 100 100 100 100 100 100 100 100 100 100 100 100 100 100 100 98 100 100 100 100 100 94 86 97 98 100 100 100
27 96 89 84 100 100 100 99 84 95 100 100 100 93 95 100 100 100 100 100 100 100 100 100 100 100 100 100 100 100 100 100 100 100 100 100 100 100 100 100 100 94 100 100 100 100 100 94 92 75 82 90 99 100
100 99 76 83 100 100 100 100 100 100 100 98 100 100 100 100 100 100 100 100 100 100 100 100 100 100 100 100 100 100 100 100 100 96 100 100 96 88 97 100 100 100 100 100 94 100 100 100 100 99 92 80 81 84
89 38 53 88 98 66 92 35 77 93 100 71 56 94 100 100 100 100 100 99 100 100 100 100 100 100 100 100 100 100 100 100 100 98 95 94 96 88 98 99 100 100 100 100 100 100 94 100 100 98 94 96 84 92
43 84 83 94 95 76 77 37 10 76 80 100 100 100 100 100 100 100 100 100 100 100 100 100 100 100 100 100 100 100 100 100 100 97 100 98 99 98 100 100 100 100 99 100 100 100 91 99 100 100 100 100 89 88
5 5 71 100 100 86 94 74 37 65 63 59 82 82 100 100 100 100 100 100 100 100 100 100 100 100 100 100 100 100 100 100 100 98 99 86 97 97 100 100 100 100 100 100 100 97 100 98 93 99 90 80 85 97
5 5 5 65 43 86 47 58 70 92 96 98 100 80 59 95 100 100 100 100 100 100 100 100 100 100 100 100 100 100 100 100 100 95 68 80 87 68 82 99 100 100 99 100 99 87 89 93 100 100 99 100 100 100

GFSWCAN_prec_cloud_174.txt.gz
Cloud_Cover
18 7 70 96 100 99 33 64 47 36 5 5 5 5 5 20 100 58 84 100 100 100 90 5 36 96 100 100 100 100 100 100 100 100 100 100 100 100 62 9 5 5 19 56 93 100 74 100 87 80 65 63 9 95
38 42 5 32 92 100 75 100 62 10 5 5 5 5 67 74 36 44 100 96 100 100 78 87 41 79 100 100 100 100 100 100 100 100 100 100 91 26 14 26 5 5 8 73 65 11 76 99 19 100 100 100 100 45
36 5 11 99 83 60 56 6 5 6 34 5 5 5 5 93 100 100 100 100 100 100 100 100 77 67 100 100 100 100 100 100 100 100 100 100 100 5 22 7 20 5 5 5 5 33 18 6 5 100 100 5 100 52
87 24 39 81 71 33 35 36 11 5 4 5 5 26 100 100 100 100 99 100 100 100 100 100 88 53 95 100 100 100 100 99 100 100 100 100 60 43 6 64 63 7 5 5 5 5 5 18 77 100 15 14 38 100
5 21 39 79 52 12 5 5 3 2 4 5 14 99 100 100 99 100 100 99 95 100 100 98 13 37 100 100 100 100 100 53 93 100 100 100 89 99 42 55 5 5 5 5 1 5 6 5 31 73 95 6 100 100
5 26 11 7 97 1 5 41 5 74 52 31 47 20 44 25 6 91 80 92 87 99 78 69 95 27 16 97 100 100 92 32 5 8 6 72 99 100 100 92 9 0 4 5 1 5 5 5 5 5 6 66 84 99
56 10 5 42 52 72 67 14 74 100 95 18 46 21 5 5 5 7 5 10 18 14 61 75 46 39 5 1 2 20 25 10 6 12 7 21 5 62 86 90 56 14 2 0 0 0 2 5 5 96 100 100 100 100
7 71 85 99 100 86 94 100 100 100 98 42 40 70 76 22 17 62 52 21 44 87 92 100 86 27 29 76 88 88 51 33 34 17 9 5 24 97 90 4 0 0 0 4 49 6 5 5 47 100 100 100 50 65
5 26 100 99 61 97 100 100 83 91 100 94 100 100 100 100 100 100 100 84 80 91 100 98 98 92 56 88 49 53 89 89 98 78 96 68 40 63 4 5 5 92 28 11 6 47 6 31 100 100 100 77 29 54
9 100 54 99 98 100 100 100 100 100 100 100 100 100 100 100 100 100 100 100 100 100 100 100 100 100 100 100 100 37 100 100 78 20 10 100 19 5 4 4 5 7 7 73 100 100 100 94 100 100 16 76 100 100
22 67 100 100 100 100 100 100 100 100 100 100 100 100 100 100 100 100 100 100 100 100 100 99 98 100 79 99 75 100 100 100 100 100 100 88 99 100 66 49 46 22 100 100 84 93 84 83 100 52 46 99 100 100
100 100 100 99 100 100 100 100 100 100 100 100 100 100 100 100 100 100 100 100 100 100 100 100 100 100 86 95 100 100 100 100 100 90 100 100 100 98 100 100 100 97 57 63 43 74 71 99 48 58 100 100 99 79
100 100 100 61 100 100 100 100 100 100 100 100 100 100 100 100 100 100 100 100 100 100 100 100 81 88 97 100 100 100 100 100 100 100 100 100 100 100 100 100 100 100 100 100 100 100 28 41 94 100 99 61 89 83
25 41 74 100 100 100 100 100 100 100 100 100 100 100 100 100 100 100 100 95 95 100 100 100 54 86 100 100 100 100 100 100 100 100 96 100 100 99 100 100 100 100 100 100 100 100 97 100 50 100 100 87 99 100
40 37 100 100 100 100 100 100 100 100 100 100 100 99 100 100 100 100 100 100 100 100 100 91 34 93 100 100 78 90 100 100 100 100 100 100 100 92 100 100 100 100 100 100 100 100 100 100 100 100 100 100 89 96
69 96 97 100 100 100 100 100 100 100 100 100 100 100 100 100 100 100 100 100 100 100 100 100 97 48 97 99 97 98 52 100 100 100 100 100 97 86 64 100 100 100 100 100 100 100 100 100 100 100 100 100 93 93
86 99 100 100 100 100 100 100 100 100 100 100 84 99 100 100 100 100 100 100 100 98 72 99 90 54 44 86 94 97 100 100 100 100 100 100 100 100 100 95 89 100 100 100 100 100 100 100 100 100 100 97 89 88
88 80 100 100 100 100 100 100 100 100 100 84 100 100 100 100 100 100 100 100 100 100 100 100 96 67 58 62 83 78 97 100 100 100 100 97 98 84 99 99 86 69 100 88 99 100 100 100 100 99 100 98 92 100
90 100 100 100 100 100 100 100 100 100 100 100 100 100 100 100 100 100 100 100 100 90 100 100 97 76 79 82 100 100 100 100 100 94 82 100 75 100 94 82 98 98 94 99 99 92 94 100 100 100 100 100 100 100
25 92 100 100 100 100 100 100 100 100 100 100 100 100 100 100 100 100 100 100 100 100 100 100 100 100 100 100 100 100 100 100 99 100 98 89 83 80 98 100 100 100 100 100 100 100 100 100 99 100 100 100 100 100
15 22 80 95 100 100 100 100 100 100 100 100 100 100 100 100 100 100 91 97 100 100 100 98 100 100 100 100 100 100 100 100 100 100 100 100 87 100 89 100 100 98 91 83 94 98 100 100 100 100 100 100 100 100
77 88 82 65 100 100 100 100 100 100 100 100 100 100 100 100 100 100 100 99 77 83 77 67 69 99 100 100 100 100 100 100 100 100 100 100 100 100 100 100 100 100 100 100 100 100 100 100 100 100 100 100 100 100
85 83 89 95 98 84 96 98 100 100 100 100 100 100 100 100 100 94 100 100 100 100 94 76 77 90 100 100 100 100 100 100 100 100 100 100 100 100 100 100 100 100 100 100 100 100 100 100 100 100 100 100 100 100
91 92 96 98 94 97 84 70 90 94 100 100 100 100 100 100 100 100 100 100 100 100 100 100 100 100 100 100 100 100 100 100 100 100 100 100 100 100 100 100 100 100 100 100 100 100 100 100 100 100 100 100 100 100
99 100 100 100 100 100 99 100 100 98 90 100 100 100 100 100 100 100 100 100 100 100 100 100 100 100 100 100 100 100 100 100 100 100 100 100 100 100 100 100 100 100 97 100 100 100 100 100 100 100 100 100 100 100
86 92 100 100 100 94 97 100 100 99 98 89 89 93 100 100 100 100 100 100 100 100 100 100 100 100 100 100 100 100 100 100 100 100 100 100 100 100 100 100 100 100 100 99 100 100 100 100 100 100 100 100 100 100
46 80 90 99 100 99 99 100 96 100 100 96 98 100 93 96 100 100 100 100 100 100 100 100 100 100 100 100 100 100 100 100 100 100 100 100 100 100 100 100 100 98 100 100 99 100 100 100 96 90 88 96 96 91
75 87 72 41 92 80 100 100 100 87 100 98 99 100 92 88 100 100 100 100 100 100 100 100 100 100 100 100 100 100 100 100 100 100 100 100 100 100 100 100 100 99 100 100 100 100 100 98 91 96 84 76 79 92
100 96 74 98 68 83 57 95 80 64 44 97 97 98 73 100 100 100 95 100 100 100 100 100 100 100 100 100 100 100 100 100 100 100 100 100 100 99 100 100 100 100 100 100 100 100 100 100 100 100 98 76 74 99
53 5 61 100 95 88 17 43 83 76 65 38 30 56 92 100 100 100 100 100 100 100 100 100 100 100 100 100 100 100 100 100 100 100 100 100 100 94 97 79 98 93 100 99 99 97 98 98 100 97 98 98 89 91
14 38 83 97 58 50 71 96 96 70 62 60 79 86 73 100 100 100 100 100 100 100 100 100 100 100 100 100 100 100 100 100 100 100 100 100 100 100 99 89 99 100 100 97 86 100 88 67 94 99 100 99 97 96
92 43 87 97 62 75 76 77 86 100 99 100 100 99 95 92 94 100 100 100 100 100 100 100 100 100 100 100 100 100 100 100 100 100 100 100 100 100 100 100 91 99 100 87 94 90 90 100 89 83 94 71 79 87
100 100 11 81 87 99 98 100 97 96 100 100 94 56 57 71 51 94 100 100 100 100 100 100 100 100 100 100 100 100 100 100 100 100 100 100 100 100 100 100 100 98 91 71 71 70 93 77 78 88 97 97 98 99